<?xml version="1.0" encoding="UTF-8" standalone="no" ?>
<gpx xmlns="http://www.topografix.com/GPX/1/1" xmlns:xsi="http://www.w3.org/2001/XMLSchema-instance" xsi:schemaLocation="http://www.topografix.com/GPX/1/1 http://www.topografix.com/GPX/1/1/gpx.xsd" version="1.1" creator="VisuGPX - https://www.visugpx.com">
  <metadata>
    <name>pic de bastan et tour des bastans depuis refuge 2, Hautes Pyrénées, par NATAKA</name>
  </metadata>
  <trk>
    <name><![CDATA[13884340-pic de bastan et tour des bastans depuis refuge pl]]></name>
    <trkseg>
      <trkpt lat="42.85341" lon="0.20905">
        <ele>2233</ele>
        <time>2021-10-29T14:48:21Z</time>
      </trkpt>
      <trkpt lat="42.85329" lon="0.20896">
        <ele>2230</ele>
        <time>2021-10-29T14:48:32Z</time>
      </trkpt>
      <trkpt lat="42.85319" lon="0.20883">
        <ele>2228</ele>
        <time>2021-10-29T14:48:43Z</time>
      </trkpt>
      <trkpt lat="42.85311" lon="0.2087">
        <ele>2226</ele>
        <time>2021-10-29T14:48:53Z</time>
      </trkpt>
      <trkpt lat="42.85331" lon="0.20873">
        <ele>2228</ele>
        <time>2021-10-29T14:49:09Z</time>
      </trkpt>
      <trkpt lat="42.8536" lon="0.20871">
        <ele>2232</ele>
        <time>2021-10-29T14:49:32Z</time>
      </trkpt>
      <trkpt lat="42.85372" lon="0.20876">
        <ele>2234</ele>
        <time>2021-10-29T14:49:42Z</time>
      </trkpt>
      <trkpt lat="42.854" lon="0.20906">
        <ele>2239</ele>
        <time>2021-10-29T14:50:11Z</time>
      </trkpt>
      <trkpt lat="42.8544" lon="0.20928">
        <ele>2247</ele>
        <time>2021-10-29T14:50:45Z</time>
      </trkpt>
      <trkpt lat="42.85449" lon="0.20926">
        <ele>2249</ele>
        <time>2021-10-29T14:50:53Z</time>
      </trkpt>
      <trkpt lat="42.85453" lon="0.20911">
        <ele>2248</ele>
        <time>2021-10-29T14:51:02Z</time>
      </trkpt>
      <trkpt lat="42.85452" lon="0.20894">
        <ele>2249</ele>
        <time>2021-10-29T14:51:12Z</time>
      </trkpt>
      <trkpt lat="42.85453" lon="0.20887">
        <ele>2249</ele>
        <time>2021-10-29T14:51:16Z</time>
      </trkpt>
      <trkpt lat="42.85468" lon="0.20876">
        <ele>2254</ele>
        <time>2021-10-29T14:51:30Z</time>
      </trkpt>
      <trkpt lat="42.85503" lon="0.20858">
        <ele>2265</ele>
        <time>2021-10-29T14:52:00Z</time>
      </trkpt>
      <trkpt lat="42.85516" lon="0.20857">
        <ele>2266</ele>
        <time>2021-10-29T14:52:10Z</time>
      </trkpt>
      <trkpt lat="42.85521" lon="0.20847">
        <ele>2268</ele>
        <time>2021-10-29T14:52:17Z</time>
      </trkpt>
      <trkpt lat="42.85532" lon="0.2084">
        <ele>2270</ele>
        <time>2021-10-29T14:52:27Z</time>
      </trkpt>
      <trkpt lat="42.85535" lon="0.2083">
        <ele>2271</ele>
        <time>2021-10-29T14:52:33Z</time>
      </trkpt>
      <trkpt lat="42.85548" lon="0.20824">
        <ele>2273</ele>
        <time>2021-10-29T14:52:44Z</time>
      </trkpt>
      <trkpt lat="42.85564" lon="0.20805">
        <ele>2277</ele>
        <time>2021-10-29T14:53:01Z</time>
      </trkpt>
      <trkpt lat="42.85571" lon="0.20786">
        <ele>2280</ele>
        <time>2021-10-29T14:53:14Z</time>
      </trkpt>
      <trkpt lat="42.85596" lon="0.20756">
        <ele>2286</ele>
        <time>2021-10-29T14:53:41Z</time>
      </trkpt>
      <trkpt lat="42.85608" lon="0.20744">
        <ele>2288</ele>
        <time>2021-10-29T14:53:53Z</time>
      </trkpt>
      <trkpt lat="42.8563" lon="0.20738">
        <ele>2290</ele>
        <time>2021-10-29T14:54:10Z</time>
      </trkpt>
      <trkpt lat="42.85657" lon="0.20718">
        <ele>2294</ele>
        <time>2021-10-29T14:54:35Z</time>
      </trkpt>
      <trkpt lat="42.85669" lon="0.20712">
        <ele>2296</ele>
        <time>2021-10-29T14:54:45Z</time>
      </trkpt>
      <trkpt lat="42.85673" lon="0.20712">
        <ele>2297</ele>
        <time>2021-10-29T14:54:49Z</time>
      </trkpt>
      <trkpt lat="42.85699" lon="0.20737">
        <ele>2296</ele>
        <time>2021-10-29T14:55:14Z</time>
      </trkpt>
      <trkpt lat="42.85709" lon="0.20737">
        <ele>2297</ele>
        <time>2021-10-29T14:55:22Z</time>
      </trkpt>
      <trkpt lat="42.85716" lon="0.20731">
        <ele>2299</ele>
        <time>2021-10-29T14:55:29Z</time>
      </trkpt>
      <trkpt lat="42.85717" lon="0.20725">
        <ele>2300</ele>
        <time>2021-10-29T14:55:32Z</time>
      </trkpt>
      <trkpt lat="42.85719" lon="0.20724">
        <ele>2301</ele>
        <time>2021-10-29T14:55:34Z</time>
      </trkpt>
      <trkpt lat="42.85722" lon="0.20729">
        <ele>2300</ele>
        <time>2021-10-29T14:55:38Z</time>
      </trkpt>
      <trkpt lat="42.85735" lon="0.20728">
        <ele>2302</ele>
        <time>2021-10-29T14:55:48Z</time>
      </trkpt>
      <trkpt lat="42.8574" lon="0.20746">
        <ele>2301</ele>
        <time>2021-10-29T14:55:59Z</time>
      </trkpt>
      <trkpt lat="42.85745" lon="0.20752">
        <ele>2301</ele>
        <time>2021-10-29T14:56:05Z</time>
      </trkpt>
      <trkpt lat="42.8575" lon="0.20752">
        <ele>2302</ele>
        <time>2021-10-29T14:56:09Z</time>
      </trkpt>
      <trkpt lat="42.85765" lon="0.20739">
        <ele>2305</ele>
        <time>2021-10-29T14:56:23Z</time>
      </trkpt>
      <trkpt lat="42.85769" lon="0.20741">
        <ele>2306</ele>
        <time>2021-10-29T14:56:26Z</time>
      </trkpt>
      <trkpt lat="42.85771" lon="0.20744">
        <ele>2306</ele>
        <time>2021-10-29T14:56:29Z</time>
      </trkpt>
      <trkpt lat="42.85776" lon="0.20748">
        <ele>2306</ele>
        <time>2021-10-29T14:56:33Z</time>
      </trkpt>
      <trkpt lat="42.85786" lon="0.20748">
        <ele>2307</ele>
        <time>2021-10-29T14:56:41Z</time>
      </trkpt>
      <trkpt lat="42.85791" lon="0.20747">
        <ele>2308</ele>
        <time>2021-10-29T14:56:45Z</time>
      </trkpt>
      <trkpt lat="42.85793" lon="0.20742">
        <ele>2309</ele>
        <time>2021-10-29T14:56:49Z</time>
      </trkpt>
      <trkpt lat="42.85798" lon="0.20739">
        <ele>2310</ele>
        <time>2021-10-29T14:56:53Z</time>
      </trkpt>
      <trkpt lat="42.85802" lon="0.20739">
        <ele>2310</ele>
        <time>2021-10-29T14:56:56Z</time>
      </trkpt>
      <trkpt lat="42.8581" lon="0.20734">
        <ele>2312</ele>
        <time>2021-10-29T14:57:03Z</time>
      </trkpt>
      <trkpt lat="42.85818" lon="0.20734">
        <ele>2313</ele>
        <time>2021-10-29T14:57:10Z</time>
      </trkpt>
      <trkpt lat="42.85822" lon="0.20735">
        <ele>2314</ele>
        <time>2021-10-29T14:57:13Z</time>
      </trkpt>
      <trkpt lat="42.85825" lon="0.20739">
        <ele>2314</ele>
        <time>2021-10-29T14:57:16Z</time>
      </trkpt>
      <trkpt lat="42.85834" lon="0.20743">
        <ele>2315</ele>
        <time>2021-10-29T14:57:24Z</time>
      </trkpt>
      <trkpt lat="42.85847" lon="0.20742">
        <ele>2316</ele>
        <time>2021-10-29T14:57:34Z</time>
      </trkpt>
      <trkpt lat="42.85855" lon="0.20744">
        <ele>2316</ele>
        <time>2021-10-29T14:57:41Z</time>
      </trkpt>
      <trkpt lat="42.85871" lon="0.20758">
        <ele>2316</ele>
        <time>2021-10-29T14:57:56Z</time>
      </trkpt>
      <trkpt lat="42.85876" lon="0.20759">
        <ele>2317</ele>
        <time>2021-10-29T14:58:00Z</time>
      </trkpt>
      <trkpt lat="42.85897" lon="0.20752">
        <ele>2319</ele>
        <time>2021-10-29T14:58:18Z</time>
      </trkpt>
      <trkpt lat="42.85902" lon="0.20751">
        <ele>2320</ele>
        <time>2021-10-29T14:58:22Z</time>
      </trkpt>
      <trkpt lat="42.85908" lon="0.20754">
        <ele>2320</ele>
        <time>2021-10-29T14:58:27Z</time>
      </trkpt>
      <trkpt lat="42.85914" lon="0.20751">
        <ele>2321</ele>
        <time>2021-10-29T14:58:32Z</time>
      </trkpt>
      <trkpt lat="42.85919" lon="0.20742">
        <ele>2322</ele>
        <time>2021-10-29T14:58:38Z</time>
      </trkpt>
      <trkpt lat="42.85924" lon="0.2074">
        <ele>2322</ele>
        <time>2021-10-29T14:58:43Z</time>
      </trkpt>
      <trkpt lat="42.85929" lon="0.20733">
        <ele>2323</ele>
        <time>2021-10-29T14:58:48Z</time>
      </trkpt>
      <trkpt lat="42.85928" lon="0.20727">
        <ele>2324</ele>
        <time>2021-10-29T14:58:52Z</time>
      </trkpt>
      <trkpt lat="42.85932" lon="0.20718">
        <ele>2325</ele>
        <time>2021-10-29T14:58:58Z</time>
      </trkpt>
      <trkpt lat="42.8595" lon="0.20697">
        <ele>2328</ele>
        <time>2021-10-29T14:59:17Z</time>
      </trkpt>
      <trkpt lat="42.85964" lon="0.20693">
        <ele>2329</ele>
        <time>2021-10-29T14:59:29Z</time>
      </trkpt>
      <trkpt lat="42.85966" lon="0.2069">
        <ele>2330</ele>
        <time>2021-10-29T14:59:31Z</time>
      </trkpt>
      <trkpt lat="42.85969" lon="0.20691">
        <ele>2330</ele>
        <time>2021-10-29T14:59:33Z</time>
      </trkpt>
      <trkpt lat="42.85971" lon="0.20688">
        <ele>2330</ele>
        <time>2021-10-29T14:59:36Z</time>
      </trkpt>
      <trkpt lat="42.8598" lon="0.20687">
        <ele>2331</ele>
        <time>2021-10-29T14:59:43Z</time>
      </trkpt>
      <trkpt lat="42.85986" lon="0.20684">
        <ele>2332</ele>
        <time>2021-10-29T14:59:48Z</time>
      </trkpt>
      <trkpt lat="42.85989" lon="0.2068">
        <ele>2333</ele>
        <time>2021-10-29T14:59:52Z</time>
      </trkpt>
      <trkpt lat="42.85998" lon="0.20677">
        <ele>2334</ele>
        <time>2021-10-29T14:59:59Z</time>
      </trkpt>
      <trkpt lat="42.86014" lon="0.20683">
        <ele>2338</ele>
        <time>2021-10-29T15:00:12Z</time>
      </trkpt>
      <trkpt lat="42.86023" lon="0.20693">
        <ele>2339</ele>
        <time>2021-10-29T15:00:22Z</time>
      </trkpt>
      <trkpt lat="42.86032" lon="0.20693">
        <ele>2342</ele>
        <time>2021-10-29T15:00:29Z</time>
      </trkpt>
      <trkpt lat="42.86041" lon="0.20683">
        <ele>2345</ele>
        <time>2021-10-29T15:00:38Z</time>
      </trkpt>
      <trkpt lat="42.86051" lon="0.20682">
        <ele>2348</ele>
        <time>2021-10-29T15:00:46Z</time>
      </trkpt>
      <trkpt lat="42.86055" lon="0.20686">
        <ele>2349</ele>
        <time>2021-10-29T15:00:50Z</time>
      </trkpt>
      <trkpt lat="42.86072" lon="0.2069">
        <ele>2354</ele>
        <time>2021-10-29T15:01:04Z</time>
      </trkpt>
      <trkpt lat="42.86075" lon="0.20698">
        <ele>2354</ele>
        <time>2021-10-29T15:01:09Z</time>
      </trkpt>
      <trkpt lat="42.86079" lon="0.20698">
        <ele>2355</ele>
        <time>2021-10-29T15:01:12Z</time>
      </trkpt>
      <trkpt lat="42.86086" lon="0.20694">
        <ele>2358</ele>
        <time>2021-10-29T15:01:18Z</time>
      </trkpt>
      <trkpt lat="42.86089" lon="0.20697">
        <ele>2359</ele>
        <time>2021-10-29T15:01:21Z</time>
      </trkpt>
      <trkpt lat="42.86097" lon="0.20698">
        <ele>2362</ele>
        <time>2021-10-29T15:01:28Z</time>
      </trkpt>
      <trkpt lat="42.86099" lon="0.207">
        <ele>2362</ele>
        <time>2021-10-29T15:01:30Z</time>
      </trkpt>
      <trkpt lat="42.86101" lon="0.207">
        <ele>2363</ele>
        <time>2021-10-29T15:01:31Z</time>
      </trkpt>
      <trkpt lat="42.86104" lon="0.2069">
        <ele>2365</ele>
        <time>2021-10-29T15:01:38Z</time>
      </trkpt>
      <trkpt lat="42.86118" lon="0.20643">
        <ele>2370</ele>
        <time>2021-10-29T15:02:07Z</time>
      </trkpt>
      <trkpt lat="42.86137" lon="0.2065">
        <ele>2376</ele>
        <time>2021-10-29T15:02:23Z</time>
      </trkpt>
      <trkpt lat="42.86154" lon="0.20667">
        <ele>2382</ele>
        <time>2021-10-29T15:02:40Z</time>
      </trkpt>
      <trkpt lat="42.86161" lon="0.20679">
        <ele>2384</ele>
        <time>2021-10-29T15:02:49Z</time>
      </trkpt>
      <trkpt lat="42.86167" lon="0.20686">
        <ele>2386</ele>
        <time>2021-10-29T15:02:55Z</time>
      </trkpt>
      <trkpt lat="42.86173" lon="0.20688">
        <ele>2387</ele>
        <time>2021-10-29T15:03:00Z</time>
      </trkpt>
      <trkpt lat="42.86177" lon="0.20695">
        <ele>2387</ele>
        <time>2021-10-29T15:03:06Z</time>
      </trkpt>
      <trkpt lat="42.86199" lon="0.20697">
        <ele>2389</ele>
        <time>2021-10-29T15:03:23Z</time>
      </trkpt>
      <trkpt lat="42.86208" lon="0.20694">
        <ele>2390</ele>
        <time>2021-10-29T15:03:31Z</time>
      </trkpt>
      <trkpt lat="42.86215" lon="0.20696">
        <ele>2390</ele>
        <time>2021-10-29T15:03:36Z</time>
      </trkpt>
      <trkpt lat="42.86226" lon="0.20697">
        <ele>2391</ele>
        <time>2021-10-29T15:03:45Z</time>
      </trkpt>
      <trkpt lat="42.86246" lon="0.20705">
        <ele>2394</ele>
        <time>2021-10-29T15:04:02Z</time>
      </trkpt>
      <trkpt lat="42.86248" lon="0.20708">
        <ele>2394</ele>
        <time>2021-10-29T15:04:04Z</time>
      </trkpt>
      <trkpt lat="42.86262" lon="0.20712">
        <ele>2397</ele>
        <time>2021-10-29T15:04:16Z</time>
      </trkpt>
      <trkpt lat="42.86267" lon="0.20711">
        <ele>2397</ele>
        <time>2021-10-29T15:04:20Z</time>
      </trkpt>
      <trkpt lat="42.86271" lon="0.20718">
        <ele>2399</ele>
        <time>2021-10-29T15:04:25Z</time>
      </trkpt>
      <trkpt lat="42.86288" lon="0.20727">
        <ele>2402</ele>
        <time>2021-10-29T15:04:40Z</time>
      </trkpt>
      <trkpt lat="42.86292" lon="0.20722">
        <ele>2402</ele>
        <time>2021-10-29T15:04:44Z</time>
      </trkpt>
      <trkpt lat="42.86298" lon="0.20723">
        <ele>2403</ele>
        <time>2021-10-29T15:04:49Z</time>
      </trkpt>
      <trkpt lat="42.86305" lon="0.20714">
        <ele>2404</ele>
        <time>2021-10-29T15:04:56Z</time>
      </trkpt>
      <trkpt lat="42.86311" lon="0.20712">
        <ele>2404</ele>
        <time>2021-10-29T15:05:01Z</time>
      </trkpt>
      <trkpt lat="42.86331" lon="0.20721">
        <ele>2408</ele>
        <time>2021-10-29T15:05:18Z</time>
      </trkpt>
      <trkpt lat="42.86342" lon="0.2072">
        <ele>2409</ele>
        <time>2021-10-29T15:05:27Z</time>
      </trkpt>
      <trkpt lat="42.86347" lon="0.20723">
        <ele>2410</ele>
        <time>2021-10-29T15:05:32Z</time>
      </trkpt>
      <trkpt lat="42.86368" lon="0.20706">
        <ele>2411</ele>
        <time>2021-10-29T15:05:51Z</time>
      </trkpt>
      <trkpt lat="42.86373" lon="0.207">
        <ele>2411</ele>
        <time>2021-10-29T15:05:56Z</time>
      </trkpt>
      <trkpt lat="42.86378" lon="0.20698">
        <ele>2411</ele>
        <time>2021-10-29T15:06:01Z</time>
      </trkpt>
      <trkpt lat="42.86389" lon="0.20701">
        <ele>2412</ele>
        <time>2021-10-29T15:06:10Z</time>
      </trkpt>
      <trkpt lat="42.86393" lon="0.20699">
        <ele>2413</ele>
        <time>2021-10-29T15:06:13Z</time>
      </trkpt>
      <trkpt lat="42.86401" lon="0.20699">
        <ele>2413</ele>
        <time>2021-10-29T15:06:19Z</time>
      </trkpt>
      <trkpt lat="42.86407" lon="0.20696">
        <ele>2414</ele>
        <time>2021-10-29T15:06:24Z</time>
      </trkpt>
      <trkpt lat="42.86416" lon="0.20698">
        <ele>2415</ele>
        <time>2021-10-29T15:06:32Z</time>
      </trkpt>
      <trkpt lat="42.8642" lon="0.20696">
        <ele>2415</ele>
        <time>2021-10-29T15:06:35Z</time>
      </trkpt>
      <trkpt lat="42.86426" lon="0.20699">
        <ele>2415</ele>
        <time>2021-10-29T15:06:40Z</time>
      </trkpt>
      <trkpt lat="42.86437" lon="0.207">
        <ele>2416</ele>
        <time>2021-10-29T15:06:49Z</time>
      </trkpt>
      <trkpt lat="42.86452" lon="0.20706">
        <ele>2418</ele>
        <time>2021-10-29T15:07:02Z</time>
      </trkpt>
      <trkpt lat="42.86461" lon="0.20702">
        <ele>2418</ele>
        <time>2021-10-29T15:07:09Z</time>
      </trkpt>
      <trkpt lat="42.86473" lon="0.20703">
        <ele>2419</ele>
        <time>2021-10-29T15:07:19Z</time>
      </trkpt>
      <trkpt lat="42.86477" lon="0.20698">
        <ele>2419</ele>
        <time>2021-10-29T15:07:23Z</time>
      </trkpt>
      <trkpt lat="42.86482" lon="0.20698">
        <ele>2420</ele>
        <time>2021-10-29T15:07:27Z</time>
      </trkpt>
      <trkpt lat="42.86495" lon="0.20678">
        <ele>2419</ele>
        <time>2021-10-29T15:07:43Z</time>
      </trkpt>
      <trkpt lat="42.86505" lon="0.20674">
        <ele>2421</ele>
        <time>2021-10-29T15:07:51Z</time>
      </trkpt>
      <trkpt lat="42.86511" lon="0.20666">
        <ele>2422</ele>
        <time>2021-10-29T15:07:58Z</time>
      </trkpt>
      <trkpt lat="42.86519" lon="0.20666">
        <ele>2424</ele>
        <time>2021-10-29T15:08:04Z</time>
      </trkpt>
      <trkpt lat="42.86524" lon="0.20655">
        <ele>2426</ele>
        <time>2021-10-29T15:08:12Z</time>
      </trkpt>
      <trkpt lat="42.8653" lon="0.20654">
        <ele>2428</ele>
        <time>2021-10-29T15:08:17Z</time>
      </trkpt>
      <trkpt lat="42.86537" lon="0.20658">
        <ele>2429</ele>
        <time>2021-10-29T15:08:23Z</time>
      </trkpt>
      <trkpt lat="42.86539" lon="0.20656">
        <ele>2430</ele>
        <time>2021-10-29T15:08:25Z</time>
      </trkpt>
      <trkpt lat="42.86542" lon="0.20657">
        <ele>2430</ele>
        <time>2021-10-29T15:08:27Z</time>
      </trkpt>
      <trkpt lat="42.86549" lon="0.20653">
        <ele>2433</ele>
        <time>2021-10-29T15:08:33Z</time>
      </trkpt>
      <trkpt lat="42.86559" lon="0.20651">
        <ele>2435</ele>
        <time>2021-10-29T15:08:41Z</time>
      </trkpt>
      <trkpt lat="42.86575" lon="0.2066">
        <ele>2438</ele>
        <time>2021-10-29T15:08:55Z</time>
      </trkpt>
      <trkpt lat="42.86577" lon="0.20663">
        <ele>2439</ele>
        <time>2021-10-29T15:08:58Z</time>
      </trkpt>
      <trkpt lat="42.86596" lon="0.20666">
        <ele>2446</ele>
        <time>2021-10-29T15:09:13Z</time>
      </trkpt>
      <trkpt lat="42.86599" lon="0.20672">
        <ele>2449</ele>
        <time>2021-10-29T15:09:17Z</time>
      </trkpt>
      <trkpt lat="42.86604" lon="0.20673">
        <ele>2452</ele>
        <time>2021-10-29T15:09:21Z</time>
      </trkpt>
      <trkpt lat="42.86606" lon="0.20676">
        <ele>2454</ele>
        <time>2021-10-29T15:09:24Z</time>
      </trkpt>
      <trkpt lat="42.86608" lon="0.20676">
        <ele>2455</ele>
        <time>2021-10-29T15:09:25Z</time>
      </trkpt>
      <trkpt lat="42.86609" lon="0.20681">
        <ele>2457</ele>
        <time>2021-10-29T15:09:28Z</time>
      </trkpt>
      <trkpt lat="42.86618" lon="0.20682">
        <ele>2462</ele>
        <time>2021-10-29T15:09:36Z</time>
      </trkpt>
      <trkpt lat="42.86617" lon="0.20688">
        <ele>2464</ele>
        <time>2021-10-29T15:09:39Z</time>
      </trkpt>
      <trkpt lat="42.8663" lon="0.20693">
        <ele>2472</ele>
        <time>2021-10-29T15:09:50Z</time>
      </trkpt>
      <trkpt lat="42.86645" lon="0.20682">
        <ele>2476</ele>
        <time>2021-10-29T15:10:04Z</time>
      </trkpt>
      <trkpt lat="42.86668" lon="0.2066">
        <ele>2480</ele>
        <time>2021-10-29T15:10:26Z</time>
      </trkpt>
      <trkpt lat="42.8667" lon="0.2066">
        <ele>2481</ele>
        <time>2021-10-29T15:10:28Z</time>
      </trkpt>
      <trkpt lat="42.86669" lon="0.20664">
        <ele>2480</ele>
        <time>2021-10-29T15:10:30Z</time>
      </trkpt>
      <trkpt lat="42.86671" lon="0.20667">
        <ele>2481</ele>
        <time>2021-10-29T15:10:33Z</time>
      </trkpt>
      <trkpt lat="42.86674" lon="0.20668">
        <ele>2481</ele>
        <time>2021-10-29T15:10:35Z</time>
      </trkpt>
      <trkpt lat="42.86678" lon="0.20666">
        <ele>2481</ele>
        <time>2021-10-29T15:10:38Z</time>
      </trkpt>
      <trkpt lat="42.86683" lon="0.2066">
        <ele>2482</ele>
        <time>2021-10-29T15:10:44Z</time>
      </trkpt>
      <trkpt lat="42.86684" lon="0.2065">
        <ele>2482</ele>
        <time>2021-10-29T15:10:50Z</time>
      </trkpt>
      <trkpt lat="42.86686" lon="0.20651">
        <ele>2482</ele>
        <time>2021-10-29T15:10:51Z</time>
      </trkpt>
      <trkpt lat="42.86687" lon="0.2065">
        <ele>2482</ele>
        <time>2021-10-29T15:10:52Z</time>
      </trkpt>
      <trkpt lat="42.86686" lon="0.20639">
        <ele>2482</ele>
        <time>2021-10-29T15:10:59Z</time>
      </trkpt>
      <trkpt lat="42.86689" lon="0.20638">
        <ele>2483</ele>
        <time>2021-10-29T15:11:01Z</time>
      </trkpt>
      <trkpt lat="42.86704" lon="0.20642">
        <ele>2484</ele>
        <time>2021-10-29T15:11:14Z</time>
      </trkpt>
      <trkpt lat="42.86706" lon="0.20646">
        <ele>2484</ele>
        <time>2021-10-29T15:11:17Z</time>
      </trkpt>
      <trkpt lat="42.86709" lon="0.20648">
        <ele>2484</ele>
        <time>2021-10-29T15:11:19Z</time>
      </trkpt>
      <trkpt lat="42.86712" lon="0.20648">
        <ele>2485</ele>
        <time>2021-10-29T15:11:22Z</time>
      </trkpt>
      <trkpt lat="42.86716" lon="0.20641">
        <ele>2485</ele>
        <time>2021-10-29T15:11:27Z</time>
      </trkpt>
      <trkpt lat="42.86717" lon="0.20641">
        <ele>2485</ele>
        <time>2021-10-29T15:11:28Z</time>
      </trkpt>
      <trkpt lat="42.86715" lon="0.2065">
        <ele>2485</ele>
        <time>2021-10-29T15:11:33Z</time>
      </trkpt>
      <trkpt lat="42.86716" lon="0.20658">
        <ele>2485</ele>
        <time>2021-10-29T15:11:38Z</time>
      </trkpt>
      <trkpt lat="42.86712" lon="0.20668">
        <ele>2485</ele>
        <time>2021-10-29T15:11:45Z</time>
      </trkpt>
      <trkpt lat="42.86712" lon="0.20671">
        <ele>2486</ele>
        <time>2021-10-29T15:11:46Z</time>
      </trkpt>
      <trkpt lat="42.86712" lon="0.20668">
        <ele>2485</ele>
        <time>2021-10-29T15:11:48Z</time>
      </trkpt>
      <trkpt lat="42.86716" lon="0.20658">
        <ele>2485</ele>
        <time>2021-10-29T15:11:55Z</time>
      </trkpt>
      <trkpt lat="42.86715" lon="0.2065">
        <ele>2485</ele>
        <time>2021-10-29T15:12:00Z</time>
      </trkpt>
      <trkpt lat="42.86718" lon="0.20626">
        <ele>2485</ele>
        <time>2021-10-29T15:12:14Z</time>
      </trkpt>
      <trkpt lat="42.86719" lon="0.2062">
        <ele>2485</ele>
        <time>2021-10-29T15:12:17Z</time>
      </trkpt>
      <trkpt lat="42.86716" lon="0.20617">
        <ele>2485</ele>
        <time>2021-10-29T15:12:20Z</time>
      </trkpt>
      <trkpt lat="42.86717" lon="0.20604">
        <ele>2485</ele>
        <time>2021-10-29T15:12:28Z</time>
      </trkpt>
      <trkpt lat="42.86715" lon="0.20597">
        <ele>2484</ele>
        <time>2021-10-29T15:12:32Z</time>
      </trkpt>
      <trkpt lat="42.86717" lon="0.20593">
        <ele>2485</ele>
        <time>2021-10-29T15:12:35Z</time>
      </trkpt>
      <trkpt lat="42.86715" lon="0.20589">
        <ele>2484</ele>
        <time>2021-10-29T15:12:38Z</time>
      </trkpt>
      <trkpt lat="42.86715" lon="0.20582">
        <ele>2485</ele>
        <time>2021-10-29T15:12:42Z</time>
      </trkpt>
      <trkpt lat="42.86712" lon="0.20579">
        <ele>2486</ele>
        <time>2021-10-29T15:12:45Z</time>
      </trkpt>
      <trkpt lat="42.86715" lon="0.20572">
        <ele>2488</ele>
        <time>2021-10-29T15:12:50Z</time>
      </trkpt>
      <trkpt lat="42.86711" lon="0.20565">
        <ele>2490</ele>
        <time>2021-10-29T15:12:55Z</time>
      </trkpt>
      <trkpt lat="42.86701" lon="0.20536">
        <ele>2500</ele>
        <time>2021-10-29T15:13:14Z</time>
      </trkpt>
      <trkpt lat="42.86698" lon="0.20506">
        <ele>2510</ele>
        <time>2021-10-29T15:13:32Z</time>
      </trkpt>
      <trkpt lat="42.86701" lon="0.20499">
        <ele>2512</ele>
        <time>2021-10-29T15:13:37Z</time>
      </trkpt>
      <trkpt lat="42.86696" lon="0.20437">
        <ele>2532</ele>
        <time>2021-10-29T15:14:13Z</time>
      </trkpt>
      <trkpt lat="42.86698" lon="0.20428">
        <ele>2536</ele>
        <time>2021-10-29T15:14:19Z</time>
      </trkpt>
      <trkpt lat="42.86691" lon="0.20359">
        <ele>2562</ele>
        <time>2021-10-29T15:15:00Z</time>
      </trkpt>
      <trkpt lat="42.86679" lon="0.20335">
        <ele>2571</ele>
        <time>2021-10-29T15:15:17Z</time>
      </trkpt>
      <trkpt lat="42.86674" lon="0.20313">
        <ele>2579</ele>
        <time>2021-10-29T15:15:30Z</time>
      </trkpt>
      <trkpt lat="42.86673" lon="0.20303">
        <ele>2583</ele>
        <time>2021-10-29T15:15:36Z</time>
      </trkpt>
      <trkpt lat="42.86683" lon="0.20308">
        <ele>2581</ele>
        <time>2021-10-29T15:15:45Z</time>
      </trkpt>
      <trkpt lat="42.86682" lon="0.2029">
        <ele>2588</ele>
        <time>2021-10-29T15:15:55Z</time>
      </trkpt>
      <trkpt lat="42.86696" lon="0.20292">
        <ele>2586</ele>
        <time>2021-10-29T15:16:06Z</time>
      </trkpt>
      <trkpt lat="42.86702" lon="0.20234">
        <ele>2603</ele>
        <time>2021-10-29T15:16:41Z</time>
      </trkpt>
      <trkpt lat="42.86693" lon="0.20201">
        <ele>2612</ele>
        <time>2021-10-29T15:17:01Z</time>
      </trkpt>
      <trkpt lat="42.8669" lon="0.20188">
        <ele>2616</ele>
        <time>2021-10-29T15:17:09Z</time>
      </trkpt>
      <trkpt lat="42.86689" lon="0.20173">
        <ele>2620</ele>
        <time>2021-10-29T15:17:18Z</time>
      </trkpt>
      <trkpt lat="42.86681" lon="0.20156">
        <ele>2625</ele>
        <time>2021-10-29T15:17:30Z</time>
      </trkpt>
      <trkpt lat="42.86668" lon="0.20145">
        <ele>2632</ele>
        <time>2021-10-29T15:17:42Z</time>
      </trkpt>
      <trkpt lat="42.86659" lon="0.20134">
        <ele>2635</ele>
        <time>2021-10-29T15:17:52Z</time>
      </trkpt>
      <trkpt lat="42.86655" lon="0.20121">
        <ele>2637</ele>
        <time>2021-10-29T15:18:00Z</time>
      </trkpt>
      <trkpt lat="42.86654" lon="0.20091">
        <ele>2643</ele>
        <time>2021-10-29T15:18:18Z</time>
      </trkpt>
      <trkpt lat="42.86646" lon="0.2007">
        <ele>2645</ele>
        <time>2021-10-29T15:18:32Z</time>
      </trkpt>
      <trkpt lat="42.86642" lon="0.20057">
        <ele>2643</ele>
        <time>2021-10-29T15:18:40Z</time>
      </trkpt>
      <trkpt lat="42.8663" lon="0.20038">
        <ele>2644</ele>
        <time>2021-10-29T15:18:55Z</time>
      </trkpt>
      <trkpt lat="42.86626" lon="0.20029">
        <ele>2644</ele>
        <time>2021-10-29T15:19:01Z</time>
      </trkpt>
      <trkpt lat="42.8662" lon="0.20025">
        <ele>2646</ele>
        <time>2021-10-29T15:19:06Z</time>
      </trkpt>
      <trkpt lat="42.86613" lon="0.2003">
        <ele>2651</ele>
        <time>2021-10-29T15:19:13Z</time>
      </trkpt>
      <trkpt lat="42.86596" lon="0.20076">
        <ele>2667</ele>
        <time>2021-10-29T15:19:43Z</time>
      </trkpt>
      <trkpt lat="42.86613" lon="0.2003">
        <ele>2651</ele>
        <time>2021-10-29T15:20:13Z</time>
      </trkpt>
      <trkpt lat="42.8662" lon="0.20025">
        <ele>2646</ele>
        <time>2021-10-29T15:20:20Z</time>
      </trkpt>
      <trkpt lat="42.86626" lon="0.20029">
        <ele>2644</ele>
        <time>2021-10-29T15:20:25Z</time>
      </trkpt>
      <trkpt lat="42.8663" lon="0.20038">
        <ele>2644</ele>
        <time>2021-10-29T15:20:31Z</time>
      </trkpt>
      <trkpt lat="42.86642" lon="0.20057">
        <ele>2643</ele>
        <time>2021-10-29T15:20:46Z</time>
      </trkpt>
      <trkpt lat="42.86646" lon="0.2007">
        <ele>2645</ele>
        <time>2021-10-29T15:20:54Z</time>
      </trkpt>
      <trkpt lat="42.86654" lon="0.20091">
        <ele>2643</ele>
        <time>2021-10-29T15:21:08Z</time>
      </trkpt>
      <trkpt lat="42.86655" lon="0.20121">
        <ele>2637</ele>
        <time>2021-10-29T15:21:26Z</time>
      </trkpt>
      <trkpt lat="42.86659" lon="0.20134">
        <ele>2635</ele>
        <time>2021-10-29T15:21:34Z</time>
      </trkpt>
      <trkpt lat="42.86668" lon="0.20145">
        <ele>2632</ele>
        <time>2021-10-29T15:21:43Z</time>
      </trkpt>
      <trkpt lat="42.86681" lon="0.20156">
        <ele>2625</ele>
        <time>2021-10-29T15:21:56Z</time>
      </trkpt>
      <trkpt lat="42.86689" lon="0.20173">
        <ele>2620</ele>
        <time>2021-10-29T15:22:08Z</time>
      </trkpt>
      <trkpt lat="42.8669" lon="0.20188">
        <ele>2616</ele>
        <time>2021-10-29T15:22:16Z</time>
      </trkpt>
      <trkpt lat="42.86693" lon="0.20201">
        <ele>2612</ele>
        <time>2021-10-29T15:22:24Z</time>
      </trkpt>
      <trkpt lat="42.86702" lon="0.20234">
        <ele>2603</ele>
        <time>2021-10-29T15:22:45Z</time>
      </trkpt>
      <trkpt lat="42.86696" lon="0.20292">
        <ele>2586</ele>
        <time>2021-10-29T15:23:19Z</time>
      </trkpt>
      <trkpt lat="42.86682" lon="0.2029">
        <ele>2588</ele>
        <time>2021-10-29T15:23:31Z</time>
      </trkpt>
      <trkpt lat="42.86683" lon="0.20308">
        <ele>2581</ele>
        <time>2021-10-29T15:23:41Z</time>
      </trkpt>
      <trkpt lat="42.86673" lon="0.20303">
        <ele>2583</ele>
        <time>2021-10-29T15:23:50Z</time>
      </trkpt>
      <trkpt lat="42.86674" lon="0.20313">
        <ele>2579</ele>
        <time>2021-10-29T15:23:56Z</time>
      </trkpt>
      <trkpt lat="42.86679" lon="0.20335">
        <ele>2571</ele>
        <time>2021-10-29T15:24:09Z</time>
      </trkpt>
      <trkpt lat="42.86691" lon="0.20359">
        <ele>2562</ele>
        <time>2021-10-29T15:24:26Z</time>
      </trkpt>
      <trkpt lat="42.86698" lon="0.20428">
        <ele>2536</ele>
        <time>2021-10-29T15:25:07Z</time>
      </trkpt>
      <trkpt lat="42.86696" lon="0.20437">
        <ele>2532</ele>
        <time>2021-10-29T15:25:13Z</time>
      </trkpt>
      <trkpt lat="42.86701" lon="0.20499">
        <ele>2512</ele>
        <time>2021-10-29T15:25:49Z</time>
      </trkpt>
      <trkpt lat="42.86698" lon="0.20506">
        <ele>2510</ele>
        <time>2021-10-29T15:25:54Z</time>
      </trkpt>
      <trkpt lat="42.86701" lon="0.20536">
        <ele>2500</ele>
        <time>2021-10-29T15:26:12Z</time>
      </trkpt>
      <trkpt lat="42.86711" lon="0.20565">
        <ele>2490</ele>
        <time>2021-10-29T15:26:31Z</time>
      </trkpt>
      <trkpt lat="42.86715" lon="0.20572">
        <ele>2488</ele>
        <time>2021-10-29T15:26:36Z</time>
      </trkpt>
      <trkpt lat="42.86712" lon="0.20579">
        <ele>2486</ele>
        <time>2021-10-29T15:26:41Z</time>
      </trkpt>
      <trkpt lat="42.86715" lon="0.20582">
        <ele>2485</ele>
        <time>2021-10-29T15:26:44Z</time>
      </trkpt>
      <trkpt lat="42.86715" lon="0.20589">
        <ele>2484</ele>
        <time>2021-10-29T15:26:48Z</time>
      </trkpt>
      <trkpt lat="42.86717" lon="0.20593">
        <ele>2485</ele>
        <time>2021-10-29T15:26:51Z</time>
      </trkpt>
      <trkpt lat="42.86722" lon="0.20585">
        <ele>2485</ele>
        <time>2021-10-29T15:26:57Z</time>
      </trkpt>
      <trkpt lat="42.86729" lon="0.20569">
        <ele>2490</ele>
        <time>2021-10-29T15:27:08Z</time>
      </trkpt>
      <trkpt lat="42.86735" lon="0.2053">
        <ele>2503</ele>
        <time>2021-10-29T15:27:31Z</time>
      </trkpt>
      <trkpt lat="42.86756" lon="0.20485">
        <ele>2515</ele>
        <time>2021-10-29T15:28:02Z</time>
      </trkpt>
      <trkpt lat="42.86778" lon="0.20458">
        <ele>2512</ele>
        <time>2021-10-29T15:28:26Z</time>
      </trkpt>
      <trkpt lat="42.86784" lon="0.20445">
        <ele>2513</ele>
        <time>2021-10-29T15:28:35Z</time>
      </trkpt>
      <trkpt lat="42.86811" lon="0.20405">
        <ele>2512</ele>
        <time>2021-10-29T15:29:07Z</time>
      </trkpt>
      <trkpt lat="42.86827" lon="0.20388">
        <ele>2509</ele>
        <time>2021-10-29T15:29:23Z</time>
      </trkpt>
      <trkpt lat="42.86847" lon="0.20376">
        <ele>2502</ele>
        <time>2021-10-29T15:29:41Z</time>
      </trkpt>
      <trkpt lat="42.86854" lon="0.20368">
        <ele>2501</ele>
        <time>2021-10-29T15:29:48Z</time>
      </trkpt>
      <trkpt lat="42.86859" lon="0.20366">
        <ele>2499</ele>
        <time>2021-10-29T15:29:52Z</time>
      </trkpt>
      <trkpt lat="42.86866" lon="0.20355">
        <ele>2498</ele>
        <time>2021-10-29T15:30:01Z</time>
      </trkpt>
      <trkpt lat="42.86881" lon="0.2034">
        <ele>2494</ele>
        <time>2021-10-29T15:30:16Z</time>
      </trkpt>
      <trkpt lat="42.86888" lon="0.20337">
        <ele>2490</ele>
        <time>2021-10-29T15:30:22Z</time>
      </trkpt>
      <trkpt lat="42.86916" lon="0.20295">
        <ele>2488</ele>
        <time>2021-10-29T15:30:55Z</time>
      </trkpt>
      <trkpt lat="42.86993" lon="0.20204">
        <ele>2476</ele>
        <time>2021-10-29T15:32:16Z</time>
      </trkpt>
      <trkpt lat="42.87008" lon="0.20197">
        <ele>2474</ele>
        <time>2021-10-29T15:32:29Z</time>
      </trkpt>
      <trkpt lat="42.87014" lon="0.2019">
        <ele>2475</ele>
        <time>2021-10-29T15:32:35Z</time>
      </trkpt>
      <trkpt lat="42.87035" lon="0.20182">
        <ele>2475</ele>
        <time>2021-10-29T15:32:53Z</time>
      </trkpt>
      <trkpt lat="42.87042" lon="0.20176">
        <ele>2476</ele>
        <time>2021-10-29T15:32:59Z</time>
      </trkpt>
      <trkpt lat="42.87053" lon="0.20163">
        <ele>2478</ele>
        <time>2021-10-29T15:33:11Z</time>
      </trkpt>
      <trkpt lat="42.87064" lon="0.20161">
        <ele>2476</ele>
        <time>2021-10-29T15:33:20Z</time>
      </trkpt>
      <trkpt lat="42.87073" lon="0.20154">
        <ele>2475</ele>
        <time>2021-10-29T15:33:28Z</time>
      </trkpt>
      <trkpt lat="42.87083" lon="0.20151">
        <ele>2474</ele>
        <time>2021-10-29T15:33:37Z</time>
      </trkpt>
      <trkpt lat="42.87096" lon="0.20141">
        <ele>2474</ele>
        <time>2021-10-29T15:33:48Z</time>
      </trkpt>
      <trkpt lat="42.87119" lon="0.20131">
        <ele>2473</ele>
        <time>2021-10-29T15:34:08Z</time>
      </trkpt>
      <trkpt lat="42.87118" lon="0.20127">
        <ele>2474</ele>
        <time>2021-10-29T15:34:10Z</time>
      </trkpt>
      <trkpt lat="42.8712" lon="0.20123">
        <ele>2475</ele>
        <time>2021-10-29T15:34:13Z</time>
      </trkpt>
      <trkpt lat="42.87115" lon="0.20114">
        <ele>2476</ele>
        <time>2021-10-29T15:34:20Z</time>
      </trkpt>
      <trkpt lat="42.87118" lon="0.20106">
        <ele>2477</ele>
        <time>2021-10-29T15:34:25Z</time>
      </trkpt>
      <trkpt lat="42.87116" lon="0.20095">
        <ele>2479</ele>
        <time>2021-10-29T15:34:32Z</time>
      </trkpt>
      <trkpt lat="42.87118" lon="0.20089">
        <ele>2480</ele>
        <time>2021-10-29T15:34:36Z</time>
      </trkpt>
      <trkpt lat="42.8711" lon="0.20085">
        <ele>2480</ele>
        <time>2021-10-29T15:34:42Z</time>
      </trkpt>
      <trkpt lat="42.87116" lon="0.20077">
        <ele>2478</ele>
        <time>2021-10-29T15:34:49Z</time>
      </trkpt>
      <trkpt lat="42.87118" lon="0.20068">
        <ele>2475</ele>
        <time>2021-10-29T15:34:55Z</time>
      </trkpt>
      <trkpt lat="42.8711" lon="0.20069">
        <ele>2475</ele>
        <time>2021-10-29T15:35:01Z</time>
      </trkpt>
      <trkpt lat="42.87101" lon="0.20068">
        <ele>2474</ele>
        <time>2021-10-29T15:35:08Z</time>
      </trkpt>
      <trkpt lat="42.87111" lon="0.20052">
        <ele>2468</ele>
        <time>2021-10-29T15:35:21Z</time>
      </trkpt>
      <trkpt lat="42.87115" lon="0.2004">
        <ele>2464</ele>
        <time>2021-10-29T15:35:28Z</time>
      </trkpt>
      <trkpt lat="42.87097" lon="0.20037">
        <ele>2460</ele>
        <time>2021-10-29T15:35:43Z</time>
      </trkpt>
      <trkpt lat="42.87105" lon="0.2002">
        <ele>2454</ele>
        <time>2021-10-29T15:35:55Z</time>
      </trkpt>
      <trkpt lat="42.87105" lon="0.20016">
        <ele>2452</ele>
        <time>2021-10-29T15:35:57Z</time>
      </trkpt>
      <trkpt lat="42.8711" lon="0.20002">
        <ele>2448</ele>
        <time>2021-10-29T15:36:06Z</time>
      </trkpt>
      <trkpt lat="42.87114" lon="0.19998">
        <ele>2448</ele>
        <time>2021-10-29T15:36:10Z</time>
      </trkpt>
      <trkpt lat="42.87112" lon="0.19993">
        <ele>2446</ele>
        <time>2021-10-29T15:36:14Z</time>
      </trkpt>
      <trkpt lat="42.87101" lon="0.1999">
        <ele>2441</ele>
        <time>2021-10-29T15:36:22Z</time>
      </trkpt>
      <trkpt lat="42.87108" lon="0.19973">
        <ele>2439</ele>
        <time>2021-10-29T15:36:34Z</time>
      </trkpt>
      <trkpt lat="42.87105" lon="0.19974">
        <ele>2438</ele>
        <time>2021-10-29T15:36:36Z</time>
      </trkpt>
      <trkpt lat="42.87103" lon="0.1997">
        <ele>2436</ele>
        <time>2021-10-29T15:36:39Z</time>
      </trkpt>
      <trkpt lat="42.871" lon="0.1997">
        <ele>2435</ele>
        <time>2021-10-29T15:36:42Z</time>
      </trkpt>
      <trkpt lat="42.871" lon="0.19967">
        <ele>2434</ele>
        <time>2021-10-29T15:36:43Z</time>
      </trkpt>
      <trkpt lat="42.87104" lon="0.19965">
        <ele>2435</ele>
        <time>2021-10-29T15:36:47Z</time>
      </trkpt>
      <trkpt lat="42.87104" lon="0.19963">
        <ele>2434</ele>
        <time>2021-10-29T15:36:48Z</time>
      </trkpt>
      <trkpt lat="42.87099" lon="0.19958">
        <ele>2431</ele>
        <time>2021-10-29T15:36:53Z</time>
      </trkpt>
      <trkpt lat="42.87097" lon="0.19952">
        <ele>2429</ele>
        <time>2021-10-29T15:36:57Z</time>
      </trkpt>
      <trkpt lat="42.87092" lon="0.19947">
        <ele>2425</ele>
        <time>2021-10-29T15:37:02Z</time>
      </trkpt>
      <trkpt lat="42.87092" lon="0.19943">
        <ele>2424</ele>
        <time>2021-10-29T15:37:04Z</time>
      </trkpt>
      <trkpt lat="42.87103" lon="0.19939">
        <ele>2427</ele>
        <time>2021-10-29T15:37:13Z</time>
      </trkpt>
      <trkpt lat="42.87096" lon="0.19928">
        <ele>2421</ele>
        <time>2021-10-29T15:37:22Z</time>
      </trkpt>
      <trkpt lat="42.87096" lon="0.19921">
        <ele>2419</ele>
        <time>2021-10-29T15:37:26Z</time>
      </trkpt>
      <trkpt lat="42.87088" lon="0.19913">
        <ele>2414</ele>
        <time>2021-10-29T15:37:34Z</time>
      </trkpt>
      <trkpt lat="42.87088" lon="0.19908">
        <ele>2413</ele>
        <time>2021-10-29T15:37:37Z</time>
      </trkpt>
      <trkpt lat="42.87085" lon="0.19903">
        <ele>2411</ele>
        <time>2021-10-29T15:37:41Z</time>
      </trkpt>
      <trkpt lat="42.87088" lon="0.1988">
        <ele>2408</ele>
        <time>2021-10-29T15:37:54Z</time>
      </trkpt>
      <trkpt lat="42.87087" lon="0.19875">
        <ele>2407</ele>
        <time>2021-10-29T15:37:57Z</time>
      </trkpt>
      <trkpt lat="42.87079" lon="0.19861">
        <ele>2403</ele>
        <time>2021-10-29T15:38:08Z</time>
      </trkpt>
      <trkpt lat="42.87078" lon="0.19853">
        <ele>2402</ele>
        <time>2021-10-29T15:38:13Z</time>
      </trkpt>
      <trkpt lat="42.8707" lon="0.19852">
        <ele>2401</ele>
        <time>2021-10-29T15:38:19Z</time>
      </trkpt>
      <trkpt lat="42.87066" lon="0.19828">
        <ele>2396</ele>
        <time>2021-10-29T15:38:33Z</time>
      </trkpt>
      <trkpt lat="42.8706" lon="0.19818">
        <ele>2394</ele>
        <time>2021-10-29T15:38:41Z</time>
      </trkpt>
      <trkpt lat="42.8706" lon="0.19808">
        <ele>2392</ele>
        <time>2021-10-29T15:38:47Z</time>
      </trkpt>
      <trkpt lat="42.87062" lon="0.19801">
        <ele>2391</ele>
        <time>2021-10-29T15:38:51Z</time>
      </trkpt>
      <trkpt lat="42.8706" lon="0.19793">
        <ele>2389</ele>
        <time>2021-10-29T15:38:56Z</time>
      </trkpt>
      <trkpt lat="42.8705" lon="0.19782">
        <ele>2386</ele>
        <time>2021-10-29T15:39:06Z</time>
      </trkpt>
      <trkpt lat="42.87046" lon="0.1977">
        <ele>2383</ele>
        <time>2021-10-29T15:39:14Z</time>
      </trkpt>
      <trkpt lat="42.87039" lon="0.19762">
        <ele>2380</ele>
        <time>2021-10-29T15:39:22Z</time>
      </trkpt>
      <trkpt lat="42.87037" lon="0.19754">
        <ele>2378</ele>
        <time>2021-10-29T15:39:26Z</time>
      </trkpt>
      <trkpt lat="42.87037" lon="0.19747">
        <ele>2377</ele>
        <time>2021-10-29T15:39:31Z</time>
      </trkpt>
      <trkpt lat="42.87034" lon="0.19739">
        <ele>2375</ele>
        <time>2021-10-29T15:39:36Z</time>
      </trkpt>
      <trkpt lat="42.87031" lon="0.19736">
        <ele>2374</ele>
        <time>2021-10-29T15:39:39Z</time>
      </trkpt>
      <trkpt lat="42.87031" lon="0.19726">
        <ele>2372</ele>
        <time>2021-10-29T15:39:45Z</time>
      </trkpt>
      <trkpt lat="42.8702" lon="0.19711">
        <ele>2367</ele>
        <time>2021-10-29T15:39:57Z</time>
      </trkpt>
      <trkpt lat="42.87015" lon="0.19698">
        <ele>2364</ele>
        <time>2021-10-29T15:40:06Z</time>
      </trkpt>
      <trkpt lat="42.87013" lon="0.19682">
        <ele>2361</ele>
        <time>2021-10-29T15:40:15Z</time>
      </trkpt>
      <trkpt lat="42.87006" lon="0.1966">
        <ele>2356</ele>
        <time>2021-10-29T15:40:29Z</time>
      </trkpt>
      <trkpt lat="42.87006" lon="0.19649">
        <ele>2355</ele>
        <time>2021-10-29T15:40:36Z</time>
      </trkpt>
      <trkpt lat="42.87" lon="0.19632">
        <ele>2352</ele>
        <time>2021-10-29T15:40:47Z</time>
      </trkpt>
      <trkpt lat="42.86999" lon="0.19625">
        <ele>2352</ele>
        <time>2021-10-29T15:40:51Z</time>
      </trkpt>
      <trkpt lat="42.86996" lon="0.19621">
        <ele>2352</ele>
        <time>2021-10-29T15:40:54Z</time>
      </trkpt>
      <trkpt lat="42.86984" lon="0.19594">
        <ele>2350</ele>
        <time>2021-10-29T15:41:13Z</time>
      </trkpt>
      <trkpt lat="42.86984" lon="0.19576">
        <ele>2348</ele>
        <time>2021-10-29T15:41:24Z</time>
      </trkpt>
      <trkpt lat="42.86986" lon="0.19564">
        <ele>2346</ele>
        <time>2021-10-29T15:41:31Z</time>
      </trkpt>
      <trkpt lat="42.86985" lon="0.19553">
        <ele>2345</ele>
        <time>2021-10-29T15:41:37Z</time>
      </trkpt>
      <trkpt lat="42.86981" lon="0.19544">
        <ele>2344</ele>
        <time>2021-10-29T15:41:43Z</time>
      </trkpt>
      <trkpt lat="42.86975" lon="0.19522">
        <ele>2342</ele>
        <time>2021-10-29T15:41:57Z</time>
      </trkpt>
      <trkpt lat="42.86968" lon="0.19508">
        <ele>2341</ele>
        <time>2021-10-29T15:42:07Z</time>
      </trkpt>
      <trkpt lat="42.86965" lon="0.19497">
        <ele>2340</ele>
        <time>2021-10-29T15:42:14Z</time>
      </trkpt>
      <trkpt lat="42.86964" lon="0.19479">
        <ele>2338</ele>
        <time>2021-10-29T15:42:25Z</time>
      </trkpt>
      <trkpt lat="42.86967" lon="0.19463">
        <ele>2335</ele>
        <time>2021-10-29T15:42:34Z</time>
      </trkpt>
      <trkpt lat="42.86966" lon="0.19454">
        <ele>2334</ele>
        <time>2021-10-29T15:42:40Z</time>
      </trkpt>
      <trkpt lat="42.86967" lon="0.19452">
        <ele>2333</ele>
        <time>2021-10-29T15:42:41Z</time>
      </trkpt>
      <trkpt lat="42.86974" lon="0.19451">
        <ele>2332</ele>
        <time>2021-10-29T15:42:47Z</time>
      </trkpt>
      <trkpt lat="42.86975" lon="0.19445">
        <ele>2331</ele>
        <time>2021-10-29T15:42:50Z</time>
      </trkpt>
      <trkpt lat="42.86978" lon="0.19441">
        <ele>2330</ele>
        <time>2021-10-29T15:42:54Z</time>
      </trkpt>
      <trkpt lat="42.86977" lon="0.19437">
        <ele>2330</ele>
        <time>2021-10-29T15:42:56Z</time>
      </trkpt>
      <trkpt lat="42.86979" lon="0.19419">
        <ele>2327</ele>
        <time>2021-10-29T15:43:07Z</time>
      </trkpt>
      <trkpt lat="42.86983" lon="0.19407">
        <ele>2324</ele>
        <time>2021-10-29T15:43:15Z</time>
      </trkpt>
      <trkpt lat="42.86983" lon="0.19401">
        <ele>2324</ele>
        <time>2021-10-29T15:43:18Z</time>
      </trkpt>
      <trkpt lat="42.86988" lon="0.19393">
        <ele>2322</ele>
        <time>2021-10-29T15:43:24Z</time>
      </trkpt>
      <trkpt lat="42.8699" lon="0.19386">
        <ele>2320</ele>
        <time>2021-10-29T15:43:29Z</time>
      </trkpt>
      <trkpt lat="42.8699" lon="0.19373">
        <ele>2319</ele>
        <time>2021-10-29T15:43:36Z</time>
      </trkpt>
      <trkpt lat="42.86992" lon="0.19361">
        <ele>2316</ele>
        <time>2021-10-29T15:43:44Z</time>
      </trkpt>
      <trkpt lat="42.86996" lon="0.1935">
        <ele>2314</ele>
        <time>2021-10-29T15:43:51Z</time>
      </trkpt>
      <trkpt lat="42.87006" lon="0.19336">
        <ele>2311</ele>
        <time>2021-10-29T15:44:02Z</time>
      </trkpt>
      <trkpt lat="42.87029" lon="0.1929">
        <ele>2307</ele>
        <time>2021-10-29T15:44:35Z</time>
      </trkpt>
      <trkpt lat="42.8704" lon="0.19255">
        <ele>2305</ele>
        <time>2021-10-29T15:44:57Z</time>
      </trkpt>
      <trkpt lat="42.87045" lon="0.19211">
        <ele>2304</ele>
        <time>2021-10-29T15:45:23Z</time>
      </trkpt>
      <trkpt lat="42.87055" lon="0.19174">
        <ele>2303</ele>
        <time>2021-10-29T15:45:47Z</time>
      </trkpt>
      <trkpt lat="42.8703" lon="0.19168">
        <ele>2307</ele>
        <time>2021-10-29T15:46:07Z</time>
      </trkpt>
      <trkpt lat="42.87028" lon="0.19163">
        <ele>2308</ele>
        <time>2021-10-29T15:46:10Z</time>
      </trkpt>
      <trkpt lat="42.87022" lon="0.19158">
        <ele>2309</ele>
        <time>2021-10-29T15:46:16Z</time>
      </trkpt>
      <trkpt lat="42.87019" lon="0.19151">
        <ele>2310</ele>
        <time>2021-10-29T15:46:21Z</time>
      </trkpt>
      <trkpt lat="42.87018" lon="0.19145">
        <ele>2311</ele>
        <time>2021-10-29T15:46:24Z</time>
      </trkpt>
      <trkpt lat="42.87009" lon="0.19139">
        <ele>2313</ele>
        <time>2021-10-29T15:46:32Z</time>
      </trkpt>
      <trkpt lat="42.87001" lon="0.1913">
        <ele>2316</ele>
        <time>2021-10-29T15:46:41Z</time>
      </trkpt>
      <trkpt lat="42.87005" lon="0.19103">
        <ele>2318</ele>
        <time>2021-10-29T15:46:57Z</time>
      </trkpt>
      <trkpt lat="42.87013" lon="0.19086">
        <ele>2317</ele>
        <time>2021-10-29T15:47:09Z</time>
      </trkpt>
      <trkpt lat="42.87023" lon="0.19036">
        <ele>2316</ele>
        <time>2021-10-29T15:47:39Z</time>
      </trkpt>
      <trkpt lat="42.87035" lon="0.19022">
        <ele>2313</ele>
        <time>2021-10-29T15:47:52Z</time>
      </trkpt>
      <trkpt lat="42.87039" lon="0.18935">
        <ele>2303</ele>
        <time>2021-10-29T15:48:43Z</time>
      </trkpt>
      <trkpt lat="42.87037" lon="0.18908">
        <ele>2298</ele>
        <time>2021-10-29T15:48:59Z</time>
      </trkpt>
      <trkpt lat="42.87073" lon="0.18909">
        <ele>2297</ele>
        <time>2021-10-29T15:49:28Z</time>
      </trkpt>
      <trkpt lat="42.87076" lon="0.18894">
        <ele>2296</ele>
        <time>2021-10-29T15:49:37Z</time>
      </trkpt>
      <trkpt lat="42.87094" lon="0.18872">
        <ele>2294</ele>
        <time>2021-10-29T15:49:56Z</time>
      </trkpt>
      <trkpt lat="42.87108" lon="0.18849">
        <ele>2292</ele>
        <time>2021-10-29T15:50:14Z</time>
      </trkpt>
      <trkpt lat="42.87108" lon="0.18839">
        <ele>2292</ele>
        <time>2021-10-29T15:50:19Z</time>
      </trkpt>
      <trkpt lat="42.87114" lon="0.18788">
        <ele>2289</ele>
        <time>2021-10-29T15:50:50Z</time>
      </trkpt>
      <trkpt lat="42.87108" lon="0.18721">
        <ele>2287</ele>
        <time>2021-10-29T15:51:29Z</time>
      </trkpt>
      <trkpt lat="42.87108" lon="0.18715">
        <ele>2287</ele>
        <time>2021-10-29T15:51:33Z</time>
      </trkpt>
      <trkpt lat="42.87103" lon="0.18682">
        <ele>2286</ele>
        <time>2021-10-29T15:51:53Z</time>
      </trkpt>
      <trkpt lat="42.87105" lon="0.18675">
        <ele>2286</ele>
        <time>2021-10-29T15:51:57Z</time>
      </trkpt>
      <trkpt lat="42.87102" lon="0.18658">
        <ele>2286</ele>
        <time>2021-10-29T15:52:07Z</time>
      </trkpt>
      <trkpt lat="42.87103" lon="0.18651">
        <ele>2286</ele>
        <time>2021-10-29T15:52:11Z</time>
      </trkpt>
      <trkpt lat="42.87106" lon="0.18648">
        <ele>2287</ele>
        <time>2021-10-29T15:52:14Z</time>
      </trkpt>
      <trkpt lat="42.87108" lon="0.18639">
        <ele>2287</ele>
        <time>2021-10-29T15:52:20Z</time>
      </trkpt>
      <trkpt lat="42.87102" lon="0.18625">
        <ele>2287</ele>
        <time>2021-10-29T15:52:29Z</time>
      </trkpt>
      <trkpt lat="42.87092" lon="0.18618">
        <ele>2286</ele>
        <time>2021-10-29T15:52:38Z</time>
      </trkpt>
      <trkpt lat="42.87102" lon="0.18625">
        <ele>2287</ele>
        <time>2021-10-29T15:52:47Z</time>
      </trkpt>
      <trkpt lat="42.87108" lon="0.18639">
        <ele>2287</ele>
        <time>2021-10-29T15:52:57Z</time>
      </trkpt>
      <trkpt lat="42.87106" lon="0.18648">
        <ele>2287</ele>
        <time>2021-10-29T15:53:03Z</time>
      </trkpt>
      <trkpt lat="42.87103" lon="0.18651">
        <ele>2286</ele>
        <time>2021-10-29T15:53:05Z</time>
      </trkpt>
      <trkpt lat="42.87102" lon="0.18658">
        <ele>2286</ele>
        <time>2021-10-29T15:53:10Z</time>
      </trkpt>
      <trkpt lat="42.87105" lon="0.18675">
        <ele>2286</ele>
        <time>2021-10-29T15:53:20Z</time>
      </trkpt>
      <trkpt lat="42.87103" lon="0.18682">
        <ele>2286</ele>
        <time>2021-10-29T15:53:24Z</time>
      </trkpt>
      <trkpt lat="42.87108" lon="0.18715">
        <ele>2287</ele>
        <time>2021-10-29T15:53:44Z</time>
      </trkpt>
      <trkpt lat="42.87108" lon="0.18721">
        <ele>2287</ele>
        <time>2021-10-29T15:53:48Z</time>
      </trkpt>
      <trkpt lat="42.87076" lon="0.18712">
        <ele>2284</ele>
        <time>2021-10-29T15:54:14Z</time>
      </trkpt>
      <trkpt lat="42.87067" lon="0.18714">
        <ele>2281</ele>
        <time>2021-10-29T15:54:21Z</time>
      </trkpt>
      <trkpt lat="42.87048" lon="0.18692">
        <ele>2275</ele>
        <time>2021-10-29T15:54:41Z</time>
      </trkpt>
      <trkpt lat="42.87035" lon="0.18688">
        <ele>2272</ele>
        <time>2021-10-29T15:54:52Z</time>
      </trkpt>
      <trkpt lat="42.87027" lon="0.18683">
        <ele>2269</ele>
        <time>2021-10-29T15:54:59Z</time>
      </trkpt>
      <trkpt lat="42.87005" lon="0.18677">
        <ele>2263</ele>
        <time>2021-10-29T15:55:17Z</time>
      </trkpt>
      <trkpt lat="42.86984" lon="0.18678">
        <ele>2257</ele>
        <time>2021-10-29T15:55:34Z</time>
      </trkpt>
      <trkpt lat="42.86976" lon="0.18676">
        <ele>2255</ele>
        <time>2021-10-29T15:55:40Z</time>
      </trkpt>
      <trkpt lat="42.86966" lon="0.18679">
        <ele>2252</ele>
        <time>2021-10-29T15:55:48Z</time>
      </trkpt>
      <trkpt lat="42.86929" lon="0.18696">
        <ele>2240</ele>
        <time>2021-10-29T15:56:20Z</time>
      </trkpt>
      <trkpt lat="42.869" lon="0.18716">
        <ele>2232</ele>
        <time>2021-10-29T15:56:46Z</time>
      </trkpt>
      <trkpt lat="42.86886" lon="0.18731">
        <ele>2229</ele>
        <time>2021-10-29T15:57:00Z</time>
      </trkpt>
      <trkpt lat="42.86881" lon="0.1874">
        <ele>2227</ele>
        <time>2021-10-29T15:57:06Z</time>
      </trkpt>
      <trkpt lat="42.86878" lon="0.18742">
        <ele>2226</ele>
        <time>2021-10-29T15:57:09Z</time>
      </trkpt>
      <trkpt lat="42.86875" lon="0.18746">
        <ele>2225</ele>
        <time>2021-10-29T15:57:12Z</time>
      </trkpt>
      <trkpt lat="42.86865" lon="0.18746">
        <ele>2223</ele>
        <time>2021-10-29T15:57:20Z</time>
      </trkpt>
      <trkpt lat="42.86862" lon="0.18751">
        <ele>2222</ele>
        <time>2021-10-29T15:57:24Z</time>
      </trkpt>
      <trkpt lat="42.8686" lon="0.18747">
        <ele>2222</ele>
        <time>2021-10-29T15:57:27Z</time>
      </trkpt>
      <trkpt lat="42.86852" lon="0.18747">
        <ele>2221</ele>
        <time>2021-10-29T15:57:34Z</time>
      </trkpt>
      <trkpt lat="42.86845" lon="0.18736">
        <ele>2221</ele>
        <time>2021-10-29T15:57:42Z</time>
      </trkpt>
      <trkpt lat="42.86839" lon="0.18732">
        <ele>2221</ele>
        <time>2021-10-29T15:57:47Z</time>
      </trkpt>
      <trkpt lat="42.86834" lon="0.18733">
        <ele>2220</ele>
        <time>2021-10-29T15:57:51Z</time>
      </trkpt>
      <trkpt lat="42.86829" lon="0.18739">
        <ele>2218</ele>
        <time>2021-10-29T15:57:57Z</time>
      </trkpt>
      <trkpt lat="42.86817" lon="0.18732">
        <ele>2218</ele>
        <time>2021-10-29T15:58:07Z</time>
      </trkpt>
      <trkpt lat="42.86813" lon="0.18737">
        <ele>2217</ele>
        <time>2021-10-29T15:58:12Z</time>
      </trkpt>
      <trkpt lat="42.86809" lon="0.18738">
        <ele>2216</ele>
        <time>2021-10-29T15:58:15Z</time>
      </trkpt>
      <trkpt lat="42.86767" lon="0.18739">
        <ele>2212</ele>
        <time>2021-10-29T15:58:48Z</time>
      </trkpt>
      <trkpt lat="42.86761" lon="0.18742">
        <ele>2211</ele>
        <time>2021-10-29T15:58:54Z</time>
      </trkpt>
      <trkpt lat="42.86738" lon="0.18739">
        <ele>2209</ele>
        <time>2021-10-29T15:59:12Z</time>
      </trkpt>
      <trkpt lat="42.8673" lon="0.18736">
        <ele>2209</ele>
        <time>2021-10-29T15:59:19Z</time>
      </trkpt>
      <trkpt lat="42.8672" lon="0.18736">
        <ele>2209</ele>
        <time>2021-10-29T15:59:27Z</time>
      </trkpt>
      <trkpt lat="42.86697" lon="0.1873">
        <ele>2209</ele>
        <time>2021-10-29T15:59:45Z</time>
      </trkpt>
      <trkpt lat="42.86673" lon="0.18729">
        <ele>2208</ele>
        <time>2021-10-29T16:00:05Z</time>
      </trkpt>
      <trkpt lat="42.86669" lon="0.18728">
        <ele>2208</ele>
        <time>2021-10-29T16:00:08Z</time>
      </trkpt>
      <trkpt lat="42.86651" lon="0.18723">
        <ele>2206</ele>
        <time>2021-10-29T16:00:23Z</time>
      </trkpt>
      <trkpt lat="42.86641" lon="0.18722">
        <ele>2206</ele>
        <time>2021-10-29T16:00:31Z</time>
      </trkpt>
      <trkpt lat="42.86633" lon="0.18725">
        <ele>2205</ele>
        <time>2021-10-29T16:00:37Z</time>
      </trkpt>
      <trkpt lat="42.86626" lon="0.18722">
        <ele>2204</ele>
        <time>2021-10-29T16:00:43Z</time>
      </trkpt>
      <trkpt lat="42.86615" lon="0.1872">
        <ele>2203</ele>
        <time>2021-10-29T16:00:52Z</time>
      </trkpt>
      <trkpt lat="42.86607" lon="0.18723">
        <ele>2203</ele>
        <time>2021-10-29T16:00:59Z</time>
      </trkpt>
      <trkpt lat="42.86597" lon="0.18724">
        <ele>2202</ele>
        <time>2021-10-29T16:01:07Z</time>
      </trkpt>
      <trkpt lat="42.86588" lon="0.18728">
        <ele>2201</ele>
        <time>2021-10-29T16:01:14Z</time>
      </trkpt>
      <trkpt lat="42.8658" lon="0.18725">
        <ele>2200</ele>
        <time>2021-10-29T16:01:21Z</time>
      </trkpt>
      <trkpt lat="42.86568" lon="0.18725">
        <ele>2197</ele>
        <time>2021-10-29T16:01:31Z</time>
      </trkpt>
      <trkpt lat="42.86563" lon="0.18722">
        <ele>2196</ele>
        <time>2021-10-29T16:01:35Z</time>
      </trkpt>
      <trkpt lat="42.86555" lon="0.18723">
        <ele>2194</ele>
        <time>2021-10-29T16:01:41Z</time>
      </trkpt>
      <trkpt lat="42.86554" lon="0.18722">
        <ele>2194</ele>
        <time>2021-10-29T16:01:42Z</time>
      </trkpt>
      <trkpt lat="42.86547" lon="0.1872">
        <ele>2192</ele>
        <time>2021-10-29T16:01:48Z</time>
      </trkpt>
      <trkpt lat="42.86536" lon="0.18721">
        <ele>2190</ele>
        <time>2021-10-29T16:01:57Z</time>
      </trkpt>
      <trkpt lat="42.8653" lon="0.18712">
        <ele>2187</ele>
        <time>2021-10-29T16:02:04Z</time>
      </trkpt>
      <trkpt lat="42.86524" lon="0.18709">
        <ele>2185</ele>
        <time>2021-10-29T16:02:09Z</time>
      </trkpt>
      <trkpt lat="42.86516" lon="0.18701">
        <ele>2183</ele>
        <time>2021-10-29T16:02:17Z</time>
      </trkpt>
      <trkpt lat="42.86507" lon="0.18688">
        <ele>2179</ele>
        <time>2021-10-29T16:02:28Z</time>
      </trkpt>
      <trkpt lat="42.86499" lon="0.1869">
        <ele>2177</ele>
        <time>2021-10-29T16:02:34Z</time>
      </trkpt>
      <trkpt lat="42.86496" lon="0.18693">
        <ele>2176</ele>
        <time>2021-10-29T16:02:37Z</time>
      </trkpt>
      <trkpt lat="42.86487" lon="0.18692">
        <ele>2174</ele>
        <time>2021-10-29T16:02:44Z</time>
      </trkpt>
      <trkpt lat="42.86486" lon="0.18689">
        <ele>2173</ele>
        <time>2021-10-29T16:02:46Z</time>
      </trkpt>
      <trkpt lat="42.86482" lon="0.18691">
        <ele>2172</ele>
        <time>2021-10-29T16:02:50Z</time>
      </trkpt>
      <trkpt lat="42.86481" lon="0.1869">
        <ele>2172</ele>
        <time>2021-10-29T16:02:51Z</time>
      </trkpt>
      <trkpt lat="42.86473" lon="0.18695">
        <ele>2170</ele>
        <time>2021-10-29T16:02:58Z</time>
      </trkpt>
      <trkpt lat="42.86467" lon="0.18696">
        <ele>2169</ele>
        <time>2021-10-29T16:03:03Z</time>
      </trkpt>
      <trkpt lat="42.86461" lon="0.18694">
        <ele>2167</ele>
        <time>2021-10-29T16:03:08Z</time>
      </trkpt>
      <trkpt lat="42.86452" lon="0.18699">
        <ele>2165</ele>
        <time>2021-10-29T16:03:15Z</time>
      </trkpt>
      <trkpt lat="42.86434" lon="0.18697">
        <ele>2159</ele>
        <time>2021-10-29T16:03:30Z</time>
      </trkpt>
      <trkpt lat="42.86427" lon="0.18691">
        <ele>2156</ele>
        <time>2021-10-29T16:03:36Z</time>
      </trkpt>
      <trkpt lat="42.86422" lon="0.18691">
        <ele>2155</ele>
        <time>2021-10-29T16:03:40Z</time>
      </trkpt>
      <trkpt lat="42.86418" lon="0.18694">
        <ele>2154</ele>
        <time>2021-10-29T16:03:44Z</time>
      </trkpt>
      <trkpt lat="42.86408" lon="0.18693">
        <ele>2152</ele>
        <time>2021-10-29T16:03:52Z</time>
      </trkpt>
      <trkpt lat="42.86399" lon="0.18695">
        <ele>2150</ele>
        <time>2021-10-29T16:03:59Z</time>
      </trkpt>
      <trkpt lat="42.86394" lon="0.18701">
        <ele>2150</ele>
        <time>2021-10-29T16:04:05Z</time>
      </trkpt>
      <trkpt lat="42.86385" lon="0.18695">
        <ele>2147</ele>
        <time>2021-10-29T16:04:13Z</time>
      </trkpt>
      <trkpt lat="42.8638" lon="0.18694">
        <ele>2146</ele>
        <time>2021-10-29T16:04:17Z</time>
      </trkpt>
      <trkpt lat="42.86364" lon="0.18705">
        <ele>2144</ele>
        <time>2021-10-29T16:04:31Z</time>
      </trkpt>
      <trkpt lat="42.8635" lon="0.18704">
        <ele>2140</ele>
        <time>2021-10-29T16:04:42Z</time>
      </trkpt>
      <trkpt lat="42.86334" lon="0.18715">
        <ele>2138</ele>
        <time>2021-10-29T16:04:57Z</time>
      </trkpt>
      <trkpt lat="42.86326" lon="0.18728">
        <ele>2139</ele>
        <time>2021-10-29T16:05:07Z</time>
      </trkpt>
      <trkpt lat="42.8632" lon="0.18732">
        <ele>2138</ele>
        <time>2021-10-29T16:05:12Z</time>
      </trkpt>
      <trkpt lat="42.86314" lon="0.18729">
        <ele>2137</ele>
        <time>2021-10-29T16:05:17Z</time>
      </trkpt>
      <trkpt lat="42.86289" lon="0.18733">
        <ele>2133</ele>
        <time>2021-10-29T16:05:37Z</time>
      </trkpt>
      <trkpt lat="42.86266" lon="0.18732">
        <ele>2128</ele>
        <time>2021-10-29T16:05:56Z</time>
      </trkpt>
      <trkpt lat="42.86254" lon="0.18729">
        <ele>2126</ele>
        <time>2021-10-29T16:06:05Z</time>
      </trkpt>
      <trkpt lat="42.86239" lon="0.18728">
        <ele>2123</ele>
        <time>2021-10-29T16:06:17Z</time>
      </trkpt>
      <trkpt lat="42.86226" lon="0.18731">
        <ele>2122</ele>
        <time>2021-10-29T16:06:28Z</time>
      </trkpt>
      <trkpt lat="42.8622" lon="0.18728">
        <ele>2120</ele>
        <time>2021-10-29T16:06:33Z</time>
      </trkpt>
      <trkpt lat="42.86183" lon="0.18724">
        <ele>2114</ele>
        <time>2021-10-29T16:07:03Z</time>
      </trkpt>
      <trkpt lat="42.86159" lon="0.18725">
        <ele>2111</ele>
        <time>2021-10-29T16:07:22Z</time>
      </trkpt>
      <trkpt lat="42.86147" lon="0.18732">
        <ele>2111</ele>
        <time>2021-10-29T16:07:33Z</time>
      </trkpt>
      <trkpt lat="42.86143" lon="0.18732">
        <ele>2111</ele>
        <time>2021-10-29T16:07:36Z</time>
      </trkpt>
      <trkpt lat="42.86135" lon="0.18729">
        <ele>2110</ele>
        <time>2021-10-29T16:07:42Z</time>
      </trkpt>
      <trkpt lat="42.86132" lon="0.18726">
        <ele>2109</ele>
        <time>2021-10-29T16:07:45Z</time>
      </trkpt>
      <trkpt lat="42.86124" lon="0.18726">
        <ele>2109</ele>
        <time>2021-10-29T16:07:52Z</time>
      </trkpt>
      <trkpt lat="42.86119" lon="0.18716">
        <ele>2108</ele>
        <time>2021-10-29T16:07:59Z</time>
      </trkpt>
      <trkpt lat="42.86117" lon="0.1871">
        <ele>2108</ele>
        <time>2021-10-29T16:08:03Z</time>
      </trkpt>
      <trkpt lat="42.86113" lon="0.18703">
        <ele>2107</ele>
        <time>2021-10-29T16:08:08Z</time>
      </trkpt>
      <trkpt lat="42.86111" lon="0.18703">
        <ele>2107</ele>
        <time>2021-10-29T16:08:10Z</time>
      </trkpt>
      <trkpt lat="42.86107" lon="0.18706">
        <ele>2107</ele>
        <time>2021-10-29T16:08:13Z</time>
      </trkpt>
      <trkpt lat="42.86103" lon="0.1871">
        <ele>2107</ele>
        <time>2021-10-29T16:08:17Z</time>
      </trkpt>
      <trkpt lat="42.86103" lon="0.18713">
        <ele>2107</ele>
        <time>2021-10-29T16:08:19Z</time>
      </trkpt>
      <trkpt lat="42.86096" lon="0.18718">
        <ele>2106</ele>
        <time>2021-10-29T16:08:25Z</time>
      </trkpt>
      <trkpt lat="42.86091" lon="0.18719">
        <ele>2106</ele>
        <time>2021-10-29T16:08:29Z</time>
      </trkpt>
      <trkpt lat="42.86088" lon="0.18722">
        <ele>2106</ele>
        <time>2021-10-29T16:08:32Z</time>
      </trkpt>
      <trkpt lat="42.86081" lon="0.18721">
        <ele>2105</ele>
        <time>2021-10-29T16:08:38Z</time>
      </trkpt>
      <trkpt lat="42.86065" lon="0.1873">
        <ele>2102</ele>
        <time>2021-10-29T16:08:52Z</time>
      </trkpt>
      <trkpt lat="42.86061" lon="0.18729">
        <ele>2101</ele>
        <time>2021-10-29T16:08:55Z</time>
      </trkpt>
      <trkpt lat="42.86056" lon="0.18735">
        <ele>2100</ele>
        <time>2021-10-29T16:09:00Z</time>
      </trkpt>
      <trkpt lat="42.86055" lon="0.18741">
        <ele>2099</ele>
        <time>2021-10-29T16:09:04Z</time>
      </trkpt>
      <trkpt lat="42.86048" lon="0.1875">
        <ele>2097</ele>
        <time>2021-10-29T16:09:12Z</time>
      </trkpt>
      <trkpt lat="42.8604" lon="0.18758">
        <ele>2095</ele>
        <time>2021-10-29T16:09:20Z</time>
      </trkpt>
      <trkpt lat="42.86031" lon="0.1876">
        <ele>2093</ele>
        <time>2021-10-29T16:09:27Z</time>
      </trkpt>
      <trkpt lat="42.86026" lon="0.18764">
        <ele>2091</ele>
        <time>2021-10-29T16:09:32Z</time>
      </trkpt>
      <trkpt lat="42.8602" lon="0.18763">
        <ele>2090</ele>
        <time>2021-10-29T16:09:36Z</time>
      </trkpt>
      <trkpt lat="42.86008" lon="0.18774">
        <ele>2087</ele>
        <time>2021-10-29T16:09:48Z</time>
      </trkpt>
      <trkpt lat="42.86004" lon="0.18774">
        <ele>2086</ele>
        <time>2021-10-29T16:09:51Z</time>
      </trkpt>
      <trkpt lat="42.86004" lon="0.18778">
        <ele>2086</ele>
        <time>2021-10-29T16:09:54Z</time>
      </trkpt>
      <trkpt lat="42.86001" lon="0.1878">
        <ele>2085</ele>
        <time>2021-10-29T16:09:56Z</time>
      </trkpt>
      <trkpt lat="42.85998" lon="0.18789">
        <ele>2084</ele>
        <time>2021-10-29T16:10:02Z</time>
      </trkpt>
      <trkpt lat="42.85995" lon="0.18792">
        <ele>2083</ele>
        <time>2021-10-29T16:10:05Z</time>
      </trkpt>
      <trkpt lat="42.85986" lon="0.1879">
        <ele>2082</ele>
        <time>2021-10-29T16:10:12Z</time>
      </trkpt>
      <trkpt lat="42.85982" lon="0.188">
        <ele>2080</ele>
        <time>2021-10-29T16:10:19Z</time>
      </trkpt>
      <trkpt lat="42.8598" lon="0.18809">
        <ele>2079</ele>
        <time>2021-10-29T16:10:25Z</time>
      </trkpt>
      <trkpt lat="42.85976" lon="0.18809">
        <ele>2078</ele>
        <time>2021-10-29T16:10:28Z</time>
      </trkpt>
      <trkpt lat="42.8597" lon="0.18816">
        <ele>2076</ele>
        <time>2021-10-29T16:10:34Z</time>
      </trkpt>
      <trkpt lat="42.85965" lon="0.18818">
        <ele>2074</ele>
        <time>2021-10-29T16:10:38Z</time>
      </trkpt>
      <trkpt lat="42.85962" lon="0.1883">
        <ele>2072</ele>
        <time>2021-10-29T16:10:46Z</time>
      </trkpt>
      <trkpt lat="42.85958" lon="0.18837">
        <ele>2070</ele>
        <time>2021-10-29T16:10:51Z</time>
      </trkpt>
      <trkpt lat="42.85945" lon="0.18842">
        <ele>2065</ele>
        <time>2021-10-29T16:11:02Z</time>
      </trkpt>
      <trkpt lat="42.85938" lon="0.18851">
        <ele>2062</ele>
        <time>2021-10-29T16:11:09Z</time>
      </trkpt>
      <trkpt lat="42.85928" lon="0.18848">
        <ele>2059</ele>
        <time>2021-10-29T16:11:18Z</time>
      </trkpt>
      <trkpt lat="42.85925" lon="0.18849">
        <ele>2058</ele>
        <time>2021-10-29T16:11:20Z</time>
      </trkpt>
      <trkpt lat="42.85923" lon="0.18856">
        <ele>2056</ele>
        <time>2021-10-29T16:11:24Z</time>
      </trkpt>
      <trkpt lat="42.85924" lon="0.18859">
        <ele>2056</ele>
        <time>2021-10-29T16:11:26Z</time>
      </trkpt>
      <trkpt lat="42.8592" lon="0.18864">
        <ele>2054</ele>
        <time>2021-10-29T16:11:31Z</time>
      </trkpt>
      <trkpt lat="42.8591" lon="0.18866">
        <ele>2053</ele>
        <time>2021-10-29T16:11:39Z</time>
      </trkpt>
      <trkpt lat="42.85907" lon="0.18878">
        <ele>2051</ele>
        <time>2021-10-29T16:11:46Z</time>
      </trkpt>
      <trkpt lat="42.85903" lon="0.18882">
        <ele>2050</ele>
        <time>2021-10-29T16:11:50Z</time>
      </trkpt>
      <trkpt lat="42.85899" lon="0.1889">
        <ele>2049</ele>
        <time>2021-10-29T16:11:56Z</time>
      </trkpt>
      <trkpt lat="42.85897" lon="0.18905">
        <ele>2046</ele>
        <time>2021-10-29T16:12:05Z</time>
      </trkpt>
      <trkpt lat="42.85891" lon="0.18911">
        <ele>2045</ele>
        <time>2021-10-29T16:12:11Z</time>
      </trkpt>
      <trkpt lat="42.85882" lon="0.18925">
        <ele>2043</ele>
        <time>2021-10-29T16:12:22Z</time>
      </trkpt>
      <trkpt lat="42.85879" lon="0.18932">
        <ele>2042</ele>
        <time>2021-10-29T16:12:27Z</time>
      </trkpt>
      <trkpt lat="42.8588" lon="0.18937">
        <ele>2042</ele>
        <time>2021-10-29T16:12:30Z</time>
      </trkpt>
      <trkpt lat="42.85873" lon="0.18954">
        <ele>2040</ele>
        <time>2021-10-29T16:12:41Z</time>
      </trkpt>
      <trkpt lat="42.8586" lon="0.18968">
        <ele>2036</ele>
        <time>2021-10-29T16:12:54Z</time>
      </trkpt>
      <trkpt lat="42.85855" lon="0.1897">
        <ele>2035</ele>
        <time>2021-10-29T16:12:58Z</time>
      </trkpt>
      <trkpt lat="42.85849" lon="0.18975">
        <ele>2033</ele>
        <time>2021-10-29T16:13:04Z</time>
      </trkpt>
      <trkpt lat="42.85843" lon="0.18986">
        <ele>2030</ele>
        <time>2021-10-29T16:13:12Z</time>
      </trkpt>
      <trkpt lat="42.85841" lon="0.19004">
        <ele>2028</ele>
        <time>2021-10-29T16:13:23Z</time>
      </trkpt>
      <trkpt lat="42.85844" lon="0.19021">
        <ele>2028</ele>
        <time>2021-10-29T16:13:33Z</time>
      </trkpt>
      <trkpt lat="42.85841" lon="0.19037">
        <ele>2027</ele>
        <time>2021-10-29T16:13:43Z</time>
      </trkpt>
      <trkpt lat="42.85839" lon="0.1904">
        <ele>2026</ele>
        <time>2021-10-29T16:13:45Z</time>
      </trkpt>
      <trkpt lat="42.85834" lon="0.19041">
        <ele>2025</ele>
        <time>2021-10-29T16:13:49Z</time>
      </trkpt>
      <trkpt lat="42.85829" lon="0.19046">
        <ele>2025</ele>
        <time>2021-10-29T16:13:54Z</time>
      </trkpt>
      <trkpt lat="42.85826" lon="0.19053">
        <ele>2025</ele>
        <time>2021-10-29T16:13:59Z</time>
      </trkpt>
      <trkpt lat="42.85818" lon="0.19057">
        <ele>2025</ele>
        <time>2021-10-29T16:14:06Z</time>
      </trkpt>
      <trkpt lat="42.85815" lon="0.19063">
        <ele>2024</ele>
        <time>2021-10-29T16:14:10Z</time>
      </trkpt>
      <trkpt lat="42.85808" lon="0.19066">
        <ele>2024</ele>
        <time>2021-10-29T16:14:16Z</time>
      </trkpt>
      <trkpt lat="42.85806" lon="0.1907">
        <ele>2024</ele>
        <time>2021-10-29T16:14:19Z</time>
      </trkpt>
      <trkpt lat="42.85805" lon="0.19074">
        <ele>2024</ele>
        <time>2021-10-29T16:14:21Z</time>
      </trkpt>
      <trkpt lat="42.85804" lon="0.19112">
        <ele>2024</ele>
        <time>2021-10-29T16:14:44Z</time>
      </trkpt>
      <trkpt lat="42.85794" lon="0.1913">
        <ele>2023</ele>
        <time>2021-10-29T16:14:57Z</time>
      </trkpt>
      <trkpt lat="42.8577" lon="0.19147">
        <ele>2018</ele>
        <time>2021-10-29T16:15:18Z</time>
      </trkpt>
      <trkpt lat="42.85759" lon="0.19159">
        <ele>2014</ele>
        <time>2021-10-29T16:15:30Z</time>
      </trkpt>
      <trkpt lat="42.8575" lon="0.1916">
        <ele>2012</ele>
        <time>2021-10-29T16:15:37Z</time>
      </trkpt>
      <trkpt lat="42.85737" lon="0.19169">
        <ele>2010</ele>
        <time>2021-10-29T16:15:49Z</time>
      </trkpt>
      <trkpt lat="42.85725" lon="0.19179">
        <ele>2011</ele>
        <time>2021-10-29T16:16:00Z</time>
      </trkpt>
      <trkpt lat="42.85699" lon="0.1919">
        <ele>2009</ele>
        <time>2021-10-29T16:16:22Z</time>
      </trkpt>
      <trkpt lat="42.85692" lon="0.19195">
        <ele>2009</ele>
        <time>2021-10-29T16:16:28Z</time>
      </trkpt>
      <trkpt lat="42.85668" lon="0.19195">
        <ele>2006</ele>
        <time>2021-10-29T16:16:47Z</time>
      </trkpt>
      <trkpt lat="42.85647" lon="0.19207">
        <ele>2004</ele>
        <time>2021-10-29T16:17:05Z</time>
      </trkpt>
      <trkpt lat="42.85638" lon="0.19225">
        <ele>2003</ele>
        <time>2021-10-29T16:17:18Z</time>
      </trkpt>
      <trkpt lat="42.85634" lon="0.19242">
        <ele>2002</ele>
        <time>2021-10-29T16:17:29Z</time>
      </trkpt>
      <trkpt lat="42.85623" lon="0.19248">
        <ele>1999</ele>
        <time>2021-10-29T16:17:38Z</time>
      </trkpt>
      <trkpt lat="42.8561" lon="0.19264">
        <ele>1998</ele>
        <time>2021-10-29T16:17:52Z</time>
      </trkpt>
      <trkpt lat="42.85608" lon="0.19264">
        <ele>1997</ele>
        <time>2021-10-29T16:17:54Z</time>
      </trkpt>
      <trkpt lat="42.85604" lon="0.19271">
        <ele>1997</ele>
        <time>2021-10-29T16:17:59Z</time>
      </trkpt>
      <trkpt lat="42.85599" lon="0.19273">
        <ele>1996</ele>
        <time>2021-10-29T16:18:03Z</time>
      </trkpt>
      <trkpt lat="42.85584" lon="0.19285">
        <ele>1994</ele>
        <time>2021-10-29T16:18:17Z</time>
      </trkpt>
      <trkpt lat="42.85574" lon="0.19287">
        <ele>1994</ele>
        <time>2021-10-29T16:18:25Z</time>
      </trkpt>
      <trkpt lat="42.85552" lon="0.19305">
        <ele>1993</ele>
        <time>2021-10-29T16:18:46Z</time>
      </trkpt>
      <trkpt lat="42.85534" lon="0.19305">
        <ele>1992</ele>
        <time>2021-10-29T16:19:00Z</time>
      </trkpt>
      <trkpt lat="42.85526" lon="0.19309">
        <ele>1991</ele>
        <time>2021-10-29T16:19:07Z</time>
      </trkpt>
      <trkpt lat="42.85523" lon="0.19306">
        <ele>1991</ele>
        <time>2021-10-29T16:19:10Z</time>
      </trkpt>
      <trkpt lat="42.85505" lon="0.19303">
        <ele>1989</ele>
        <time>2021-10-29T16:19:24Z</time>
      </trkpt>
      <trkpt lat="42.85491" lon="0.19307">
        <ele>1988</ele>
        <time>2021-10-29T16:19:36Z</time>
      </trkpt>
      <trkpt lat="42.85488" lon="0.19314">
        <ele>1988</ele>
        <time>2021-10-29T16:19:41Z</time>
      </trkpt>
      <trkpt lat="42.85487" lon="0.1933">
        <ele>1986</ele>
        <time>2021-10-29T16:19:50Z</time>
      </trkpt>
      <trkpt lat="42.85482" lon="0.19339">
        <ele>1986</ele>
        <time>2021-10-29T16:19:57Z</time>
      </trkpt>
      <trkpt lat="42.85477" lon="0.19344">
        <ele>1986</ele>
        <time>2021-10-29T16:20:02Z</time>
      </trkpt>
      <trkpt lat="42.85474" lon="0.19351">
        <ele>1986</ele>
        <time>2021-10-29T16:20:06Z</time>
      </trkpt>
      <trkpt lat="42.85474" lon="0.19363">
        <ele>1987</ele>
        <time>2021-10-29T16:20:13Z</time>
      </trkpt>
      <trkpt lat="42.85465" lon="0.19376">
        <ele>1987</ele>
        <time>2021-10-29T16:20:24Z</time>
      </trkpt>
      <trkpt lat="42.85449" lon="0.19388">
        <ele>1986</ele>
        <time>2021-10-29T16:20:39Z</time>
      </trkpt>
      <trkpt lat="42.85432" lon="0.19404">
        <ele>1984</ele>
        <time>2021-10-29T16:20:55Z</time>
      </trkpt>
      <trkpt lat="42.85408" lon="0.19417">
        <ele>1981</ele>
        <time>2021-10-29T16:21:16Z</time>
      </trkpt>
      <trkpt lat="42.85396" lon="0.19426">
        <ele>1982</ele>
        <time>2021-10-29T16:21:27Z</time>
      </trkpt>
      <trkpt lat="42.85386" lon="0.19429">
        <ele>1982</ele>
        <time>2021-10-29T16:21:35Z</time>
      </trkpt>
      <trkpt lat="42.85358" lon="0.1943">
        <ele>1980</ele>
        <time>2021-10-29T16:21:57Z</time>
      </trkpt>
      <trkpt lat="42.85351" lon="0.19435">
        <ele>1980</ele>
        <time>2021-10-29T16:22:04Z</time>
      </trkpt>
      <trkpt lat="42.85342" lon="0.19437">
        <ele>1979</ele>
        <time>2021-10-29T16:22:11Z</time>
      </trkpt>
      <trkpt lat="42.85307" lon="0.19466">
        <ele>1979</ele>
        <time>2021-10-29T16:22:44Z</time>
      </trkpt>
      <trkpt lat="42.85288" lon="0.19475">
        <ele>1978</ele>
        <time>2021-10-29T16:23:00Z</time>
      </trkpt>
      <trkpt lat="42.85275" lon="0.19484">
        <ele>1977</ele>
        <time>2021-10-29T16:23:12Z</time>
      </trkpt>
      <trkpt lat="42.85268" lon="0.19484">
        <ele>1977</ele>
        <time>2021-10-29T16:23:17Z</time>
      </trkpt>
      <trkpt lat="42.85257" lon="0.19492">
        <ele>1976</ele>
        <time>2021-10-29T16:23:27Z</time>
      </trkpt>
      <trkpt lat="42.85253" lon="0.19491">
        <ele>1975</ele>
        <time>2021-10-29T16:23:30Z</time>
      </trkpt>
      <trkpt lat="42.85244" lon="0.19494">
        <ele>1975</ele>
        <time>2021-10-29T16:23:38Z</time>
      </trkpt>
      <trkpt lat="42.85229" lon="0.19492">
        <ele>1973</ele>
        <time>2021-10-29T16:23:50Z</time>
      </trkpt>
      <trkpt lat="42.85215" lon="0.19486">
        <ele>1972</ele>
        <time>2021-10-29T16:24:02Z</time>
      </trkpt>
      <trkpt lat="42.85201" lon="0.19483">
        <ele>1970</ele>
        <time>2021-10-29T16:24:13Z</time>
      </trkpt>
      <trkpt lat="42.85188" lon="0.19475">
        <ele>1968</ele>
        <time>2021-10-29T16:24:24Z</time>
      </trkpt>
      <trkpt lat="42.85185" lon="0.19475">
        <ele>1968</ele>
        <time>2021-10-29T16:24:27Z</time>
      </trkpt>
      <trkpt lat="42.85183" lon="0.19471">
        <ele>1968</ele>
        <time>2021-10-29T16:24:30Z</time>
      </trkpt>
      <trkpt lat="42.85174" lon="0.1947">
        <ele>1967</ele>
        <time>2021-10-29T16:24:37Z</time>
      </trkpt>
      <trkpt lat="42.85173" lon="0.19469">
        <ele>1967</ele>
        <time>2021-10-29T16:24:38Z</time>
      </trkpt>
      <trkpt lat="42.85171" lon="0.19458">
        <ele>1966</ele>
        <time>2021-10-29T16:24:45Z</time>
      </trkpt>
      <trkpt lat="42.85169" lon="0.19455">
        <ele>1965</ele>
        <time>2021-10-29T16:24:47Z</time>
      </trkpt>
      <trkpt lat="42.85158" lon="0.19453">
        <ele>1965</ele>
        <time>2021-10-29T16:24:56Z</time>
      </trkpt>
      <trkpt lat="42.85144" lon="0.19442">
        <ele>1964</ele>
        <time>2021-10-29T16:25:09Z</time>
      </trkpt>
      <trkpt lat="42.85137" lon="0.19429">
        <ele>1962</ele>
        <time>2021-10-29T16:25:18Z</time>
      </trkpt>
      <trkpt lat="42.85128" lon="0.19419">
        <ele>1961</ele>
        <time>2021-10-29T16:25:28Z</time>
      </trkpt>
      <trkpt lat="42.85125" lon="0.19405">
        <ele>1960</ele>
        <time>2021-10-29T16:25:36Z</time>
      </trkpt>
      <trkpt lat="42.85121" lon="0.19397">
        <ele>1960</ele>
        <time>2021-10-29T16:25:42Z</time>
      </trkpt>
      <trkpt lat="42.85125" lon="0.19374">
        <ele>1959</ele>
        <time>2021-10-29T16:25:56Z</time>
      </trkpt>
      <trkpt lat="42.85121" lon="0.19364">
        <ele>1958</ele>
        <time>2021-10-29T16:26:02Z</time>
      </trkpt>
      <trkpt lat="42.85112" lon="0.19361">
        <ele>1957</ele>
        <time>2021-10-29T16:26:10Z</time>
      </trkpt>
      <trkpt lat="42.851" lon="0.19361">
        <ele>1956</ele>
        <time>2021-10-29T16:26:19Z</time>
      </trkpt>
      <trkpt lat="42.85093" lon="0.19343">
        <ele>1955</ele>
        <time>2021-10-29T16:26:31Z</time>
      </trkpt>
      <trkpt lat="42.85084" lon="0.1933">
        <ele>1953</ele>
        <time>2021-10-29T16:26:42Z</time>
      </trkpt>
      <trkpt lat="42.85081" lon="0.19329">
        <ele>1953</ele>
        <time>2021-10-29T16:26:44Z</time>
      </trkpt>
      <trkpt lat="42.85074" lon="0.19332">
        <ele>1952</ele>
        <time>2021-10-29T16:26:50Z</time>
      </trkpt>
      <trkpt lat="42.85062" lon="0.19351">
        <ele>1953</ele>
        <time>2021-10-29T16:27:05Z</time>
      </trkpt>
      <trkpt lat="42.85058" lon="0.19352">
        <ele>1952</ele>
        <time>2021-10-29T16:27:08Z</time>
      </trkpt>
      <trkpt lat="42.85047" lon="0.19368">
        <ele>1952</ele>
        <time>2021-10-29T16:27:21Z</time>
      </trkpt>
      <trkpt lat="42.85038" lon="0.19377">
        <ele>1952</ele>
        <time>2021-10-29T16:27:30Z</time>
      </trkpt>
      <trkpt lat="42.85031" lon="0.19381">
        <ele>1951</ele>
        <time>2021-10-29T16:27:36Z</time>
      </trkpt>
      <trkpt lat="42.85026" lon="0.19393">
        <ele>1951</ele>
        <time>2021-10-29T16:27:44Z</time>
      </trkpt>
      <trkpt lat="42.85018" lon="0.19403">
        <ele>1951</ele>
        <time>2021-10-29T16:27:53Z</time>
      </trkpt>
      <trkpt lat="42.85001" lon="0.19404">
        <ele>1949</ele>
        <time>2021-10-29T16:28:06Z</time>
      </trkpt>
      <trkpt lat="42.84996" lon="0.19396">
        <ele>1948</ele>
        <time>2021-10-29T16:28:13Z</time>
      </trkpt>
      <trkpt lat="42.84985" lon="0.19391">
        <ele>1948</ele>
        <time>2021-10-29T16:28:22Z</time>
      </trkpt>
      <trkpt lat="42.84982" lon="0.19386">
        <ele>1947</ele>
        <time>2021-10-29T16:28:26Z</time>
      </trkpt>
      <trkpt lat="42.84975" lon="0.19386">
        <ele>1947</ele>
        <time>2021-10-29T16:28:31Z</time>
      </trkpt>
      <trkpt lat="42.84967" lon="0.19381">
        <ele>1946</ele>
        <time>2021-10-29T16:28:38Z</time>
      </trkpt>
      <trkpt lat="42.84962" lon="0.19381">
        <ele>1946</ele>
        <time>2021-10-29T16:28:42Z</time>
      </trkpt>
      <trkpt lat="42.84948" lon="0.19388">
        <ele>1945</ele>
        <time>2021-10-29T16:28:54Z</time>
      </trkpt>
      <trkpt lat="42.8494" lon="0.19395">
        <ele>1945</ele>
        <time>2021-10-29T16:29:02Z</time>
      </trkpt>
      <trkpt lat="42.84933" lon="0.19414">
        <ele>1945</ele>
        <time>2021-10-29T16:29:14Z</time>
      </trkpt>
      <trkpt lat="42.84926" lon="0.19422">
        <ele>1945</ele>
        <time>2021-10-29T16:29:22Z</time>
      </trkpt>
      <trkpt lat="42.84924" lon="0.19432">
        <ele>1947</ele>
        <time>2021-10-29T16:29:28Z</time>
      </trkpt>
      <trkpt lat="42.84912" lon="0.19435">
        <ele>1946</ele>
        <time>2021-10-29T16:29:38Z</time>
      </trkpt>
      <trkpt lat="42.84902" lon="0.19432">
        <ele>1945</ele>
        <time>2021-10-29T16:29:46Z</time>
      </trkpt>
      <trkpt lat="42.84898" lon="0.19438">
        <ele>1945</ele>
        <time>2021-10-29T16:29:51Z</time>
      </trkpt>
      <trkpt lat="42.84869" lon="0.1946">
        <ele>1945</ele>
        <time>2021-10-29T16:30:17Z</time>
      </trkpt>
      <trkpt lat="42.84859" lon="0.19473">
        <ele>1945</ele>
        <time>2021-10-29T16:30:28Z</time>
      </trkpt>
      <trkpt lat="42.84854" lon="0.19475">
        <ele>1944</ele>
        <time>2021-10-29T16:30:32Z</time>
      </trkpt>
      <trkpt lat="42.84806" lon="0.19478">
        <ele>1939</ele>
        <time>2021-10-29T16:31:11Z</time>
      </trkpt>
      <trkpt lat="42.84801" lon="0.19474">
        <ele>1939</ele>
        <time>2021-10-29T16:31:15Z</time>
      </trkpt>
      <trkpt lat="42.84798" lon="0.19476">
        <ele>1938</ele>
        <time>2021-10-29T16:31:18Z</time>
      </trkpt>
      <trkpt lat="42.84796" lon="0.19474">
        <ele>1938</ele>
        <time>2021-10-29T16:31:20Z</time>
      </trkpt>
      <trkpt lat="42.84793" lon="0.19476">
        <ele>1938</ele>
        <time>2021-10-29T16:31:23Z</time>
      </trkpt>
      <trkpt lat="42.8479" lon="0.19476">
        <ele>1938</ele>
        <time>2021-10-29T16:31:25Z</time>
      </trkpt>
      <trkpt lat="42.84785" lon="0.19469">
        <ele>1937</ele>
        <time>2021-10-29T16:31:31Z</time>
      </trkpt>
      <trkpt lat="42.84782" lon="0.19472">
        <ele>1937</ele>
        <time>2021-10-29T16:31:34Z</time>
      </trkpt>
      <trkpt lat="42.84779" lon="0.19468">
        <ele>1936</ele>
        <time>2021-10-29T16:31:37Z</time>
      </trkpt>
      <trkpt lat="42.84777" lon="0.19468">
        <ele>1936</ele>
        <time>2021-10-29T16:31:39Z</time>
      </trkpt>
      <trkpt lat="42.84772" lon="0.19471">
        <ele>1935</ele>
        <time>2021-10-29T16:31:43Z</time>
      </trkpt>
      <trkpt lat="42.8477" lon="0.19467">
        <ele>1935</ele>
        <time>2021-10-29T16:31:46Z</time>
      </trkpt>
      <trkpt lat="42.84762" lon="0.19468">
        <ele>1934</ele>
        <time>2021-10-29T16:31:52Z</time>
      </trkpt>
      <trkpt lat="42.84762" lon="0.19462">
        <ele>1934</ele>
        <time>2021-10-29T16:31:56Z</time>
      </trkpt>
      <trkpt lat="42.84758" lon="0.19459">
        <ele>1933</ele>
        <time>2021-10-29T16:32:00Z</time>
      </trkpt>
      <trkpt lat="42.84757" lon="0.19454">
        <ele>1933</ele>
        <time>2021-10-29T16:32:03Z</time>
      </trkpt>
      <trkpt lat="42.84756" lon="0.19453">
        <ele>1933</ele>
        <time>2021-10-29T16:32:04Z</time>
      </trkpt>
      <trkpt lat="42.84749" lon="0.19452">
        <ele>1932</ele>
        <time>2021-10-29T16:32:09Z</time>
      </trkpt>
      <trkpt lat="42.84744" lon="0.19454">
        <ele>1931</ele>
        <time>2021-10-29T16:32:14Z</time>
      </trkpt>
      <trkpt lat="42.8474" lon="0.19453">
        <ele>1930</ele>
        <time>2021-10-29T16:32:17Z</time>
      </trkpt>
      <trkpt lat="42.84736" lon="0.19444">
        <ele>1929</ele>
        <time>2021-10-29T16:32:23Z</time>
      </trkpt>
      <trkpt lat="42.84732" lon="0.19441">
        <ele>1928</ele>
        <time>2021-10-29T16:32:27Z</time>
      </trkpt>
      <trkpt lat="42.84726" lon="0.19441">
        <ele>1927</ele>
        <time>2021-10-29T16:32:31Z</time>
      </trkpt>
      <trkpt lat="42.84721" lon="0.19444">
        <ele>1927</ele>
        <time>2021-10-29T16:32:36Z</time>
      </trkpt>
      <trkpt lat="42.84715" lon="0.19442">
        <ele>1926</ele>
        <time>2021-10-29T16:32:41Z</time>
      </trkpt>
      <trkpt lat="42.84711" lon="0.19447">
        <ele>1925</ele>
        <time>2021-10-29T16:32:45Z</time>
      </trkpt>
      <trkpt lat="42.84706" lon="0.19446">
        <ele>1924</ele>
        <time>2021-10-29T16:32:49Z</time>
      </trkpt>
      <trkpt lat="42.84705" lon="0.19447">
        <ele>1924</ele>
        <time>2021-10-29T16:32:50Z</time>
      </trkpt>
      <trkpt lat="42.84702" lon="0.19446">
        <ele>1924</ele>
        <time>2021-10-29T16:32:53Z</time>
      </trkpt>
      <trkpt lat="42.847" lon="0.19448">
        <ele>1923</ele>
        <time>2021-10-29T16:32:55Z</time>
      </trkpt>
      <trkpt lat="42.84698" lon="0.19446">
        <ele>1923</ele>
        <time>2021-10-29T16:32:57Z</time>
      </trkpt>
      <trkpt lat="42.84694" lon="0.19447">
        <ele>1922</ele>
        <time>2021-10-29T16:33:00Z</time>
      </trkpt>
      <trkpt lat="42.84693" lon="0.19449">
        <ele>1922</ele>
        <time>2021-10-29T16:33:01Z</time>
      </trkpt>
      <trkpt lat="42.84694" lon="0.19454">
        <ele>1922</ele>
        <time>2021-10-29T16:33:04Z</time>
      </trkpt>
      <trkpt lat="42.84683" lon="0.19466">
        <ele>1920</ele>
        <time>2021-10-29T16:33:16Z</time>
      </trkpt>
      <trkpt lat="42.84675" lon="0.19467">
        <ele>1919</ele>
        <time>2021-10-29T16:33:22Z</time>
      </trkpt>
      <trkpt lat="42.84673" lon="0.19463">
        <ele>1919</ele>
        <time>2021-10-29T16:33:25Z</time>
      </trkpt>
      <trkpt lat="42.84671" lon="0.19462">
        <ele>1918</ele>
        <time>2021-10-29T16:33:27Z</time>
      </trkpt>
      <trkpt lat="42.84657" lon="0.19473">
        <ele>1916</ele>
        <time>2021-10-29T16:33:39Z</time>
      </trkpt>
      <trkpt lat="42.84651" lon="0.19473">
        <ele>1916</ele>
        <time>2021-10-29T16:33:44Z</time>
      </trkpt>
      <trkpt lat="42.84645" lon="0.19477">
        <ele>1915</ele>
        <time>2021-10-29T16:33:50Z</time>
      </trkpt>
      <trkpt lat="42.84632" lon="0.19473">
        <ele>1914</ele>
        <time>2021-10-29T16:34:00Z</time>
      </trkpt>
      <trkpt lat="42.84629" lon="0.19467">
        <ele>1914</ele>
        <time>2021-10-29T16:34:05Z</time>
      </trkpt>
      <trkpt lat="42.84619" lon="0.19471">
        <ele>1913</ele>
        <time>2021-10-29T16:34:13Z</time>
      </trkpt>
      <trkpt lat="42.84601" lon="0.19473">
        <ele>1911</ele>
        <time>2021-10-29T16:34:27Z</time>
      </trkpt>
      <trkpt lat="42.84573" lon="0.19472">
        <ele>1909</ele>
        <time>2021-10-29T16:34:50Z</time>
      </trkpt>
      <trkpt lat="42.84563" lon="0.1948">
        <ele>1907</ele>
        <time>2021-10-29T16:34:59Z</time>
      </trkpt>
      <trkpt lat="42.84558" lon="0.19488">
        <ele>1906</ele>
        <time>2021-10-29T16:35:05Z</time>
      </trkpt>
      <trkpt lat="42.84553" lon="0.19498">
        <ele>1905</ele>
        <time>2021-10-29T16:35:12Z</time>
      </trkpt>
      <trkpt lat="42.84553" lon="0.19504">
        <ele>1905</ele>
        <time>2021-10-29T16:35:16Z</time>
      </trkpt>
      <trkpt lat="42.84545" lon="0.19505">
        <ele>1904</ele>
        <time>2021-10-29T16:35:22Z</time>
      </trkpt>
      <trkpt lat="42.84542" lon="0.1951">
        <ele>1904</ele>
        <time>2021-10-29T16:35:26Z</time>
      </trkpt>
      <trkpt lat="42.84539" lon="0.1951">
        <ele>1904</ele>
        <time>2021-10-29T16:35:28Z</time>
      </trkpt>
      <trkpt lat="42.84534" lon="0.19515">
        <ele>1903</ele>
        <time>2021-10-29T16:35:33Z</time>
      </trkpt>
      <trkpt lat="42.84534" lon="0.19518">
        <ele>1903</ele>
        <time>2021-10-29T16:35:35Z</time>
      </trkpt>
      <trkpt lat="42.84523" lon="0.1953">
        <ele>1902</ele>
        <time>2021-10-29T16:35:46Z</time>
      </trkpt>
      <trkpt lat="42.84524" lon="0.19534">
        <ele>1902</ele>
        <time>2021-10-29T16:35:49Z</time>
      </trkpt>
      <trkpt lat="42.84522" lon="0.19537">
        <ele>1902</ele>
        <time>2021-10-29T16:35:51Z</time>
      </trkpt>
      <trkpt lat="42.84515" lon="0.19541">
        <ele>1902</ele>
        <time>2021-10-29T16:35:57Z</time>
      </trkpt>
      <trkpt lat="42.84512" lon="0.19546">
        <ele>1901</ele>
        <time>2021-10-29T16:36:01Z</time>
      </trkpt>
      <trkpt lat="42.8451" lon="0.19556">
        <ele>1901</ele>
        <time>2021-10-29T16:36:07Z</time>
      </trkpt>
      <trkpt lat="42.84498" lon="0.1956">
        <ele>1900</ele>
        <time>2021-10-29T16:36:17Z</time>
      </trkpt>
      <trkpt lat="42.84491" lon="0.19559">
        <ele>1898</ele>
        <time>2021-10-29T16:36:23Z</time>
      </trkpt>
      <trkpt lat="42.84482" lon="0.19567">
        <ele>1896</ele>
        <time>2021-10-29T16:36:31Z</time>
      </trkpt>
      <trkpt lat="42.84478" lon="0.19567">
        <ele>1895</ele>
        <time>2021-10-29T16:36:35Z</time>
      </trkpt>
      <trkpt lat="42.84474" lon="0.19563">
        <ele>1894</ele>
        <time>2021-10-29T16:36:39Z</time>
      </trkpt>
      <trkpt lat="42.84469" lon="0.19563">
        <ele>1892</ele>
        <time>2021-10-29T16:36:43Z</time>
      </trkpt>
      <trkpt lat="42.84453" lon="0.19573">
        <ele>1888</ele>
        <time>2021-10-29T16:36:57Z</time>
      </trkpt>
      <trkpt lat="42.84441" lon="0.19585">
        <ele>1884</ele>
        <time>2021-10-29T16:37:09Z</time>
      </trkpt>
      <trkpt lat="42.84438" lon="0.19584">
        <ele>1884</ele>
        <time>2021-10-29T16:37:11Z</time>
      </trkpt>
      <trkpt lat="42.84433" lon="0.19578">
        <ele>1883</ele>
        <time>2021-10-29T16:37:16Z</time>
      </trkpt>
      <trkpt lat="42.84429" lon="0.19581">
        <ele>1881</ele>
        <time>2021-10-29T16:37:20Z</time>
      </trkpt>
      <trkpt lat="42.84423" lon="0.19581">
        <ele>1880</ele>
        <time>2021-10-29T16:37:25Z</time>
      </trkpt>
      <trkpt lat="42.84419" lon="0.19583">
        <ele>1879</ele>
        <time>2021-10-29T16:37:28Z</time>
      </trkpt>
      <trkpt lat="42.84419" lon="0.19587">
        <ele>1879</ele>
        <time>2021-10-29T16:37:31Z</time>
      </trkpt>
      <trkpt lat="42.84415" lon="0.19589">
        <ele>1878</ele>
        <time>2021-10-29T16:37:34Z</time>
      </trkpt>
      <trkpt lat="42.84405" lon="0.19593">
        <ele>1877</ele>
        <time>2021-10-29T16:37:42Z</time>
      </trkpt>
      <trkpt lat="42.84399" lon="0.19598">
        <ele>1876</ele>
        <time>2021-10-29T16:37:48Z</time>
      </trkpt>
      <trkpt lat="42.84386" lon="0.19602">
        <ele>1874</ele>
        <time>2021-10-29T16:37:59Z</time>
      </trkpt>
      <trkpt lat="42.84383" lon="0.19605">
        <ele>1874</ele>
        <time>2021-10-29T16:38:02Z</time>
      </trkpt>
      <trkpt lat="42.84383" lon="0.1961">
        <ele>1874</ele>
        <time>2021-10-29T16:38:05Z</time>
      </trkpt>
      <trkpt lat="42.84381" lon="0.19612">
        <ele>1873</ele>
        <time>2021-10-29T16:38:07Z</time>
      </trkpt>
      <trkpt lat="42.84377" lon="0.19611">
        <ele>1873</ele>
        <time>2021-10-29T16:38:10Z</time>
      </trkpt>
      <trkpt lat="42.84375" lon="0.19615">
        <ele>1872</ele>
        <time>2021-10-29T16:38:13Z</time>
      </trkpt>
      <trkpt lat="42.8437" lon="0.19618">
        <ele>1871</ele>
        <time>2021-10-29T16:38:17Z</time>
      </trkpt>
      <trkpt lat="42.84368" lon="0.19622">
        <ele>1871</ele>
        <time>2021-10-29T16:38:20Z</time>
      </trkpt>
      <trkpt lat="42.8436" lon="0.19615">
        <ele>1869</ele>
        <time>2021-10-29T16:38:28Z</time>
      </trkpt>
      <trkpt lat="42.84356" lon="0.19618">
        <ele>1869</ele>
        <time>2021-10-29T16:38:31Z</time>
      </trkpt>
      <trkpt lat="42.84345" lon="0.1962">
        <ele>1867</ele>
        <time>2021-10-29T16:38:40Z</time>
      </trkpt>
      <trkpt lat="42.84339" lon="0.19624">
        <ele>1865</ele>
        <time>2021-10-29T16:38:45Z</time>
      </trkpt>
      <trkpt lat="42.84334" lon="0.19633">
        <ele>1864</ele>
        <time>2021-10-29T16:38:52Z</time>
      </trkpt>
      <trkpt lat="42.84327" lon="0.19655">
        <ele>1861</ele>
        <time>2021-10-29T16:39:06Z</time>
      </trkpt>
      <trkpt lat="42.84298" lon="0.19692">
        <ele>1857</ele>
        <time>2021-10-29T16:39:38Z</time>
      </trkpt>
      <trkpt lat="42.84293" lon="0.19706">
        <ele>1857</ele>
        <time>2021-10-29T16:39:47Z</time>
      </trkpt>
      <trkpt lat="42.8429" lon="0.19707">
        <ele>1857</ele>
        <time>2021-10-29T16:39:50Z</time>
      </trkpt>
      <trkpt lat="42.84287" lon="0.19704">
        <ele>1856</ele>
        <time>2021-10-29T16:39:53Z</time>
      </trkpt>
      <trkpt lat="42.84283" lon="0.19705">
        <ele>1856</ele>
        <time>2021-10-29T16:39:56Z</time>
      </trkpt>
      <trkpt lat="42.84279" lon="0.19711">
        <ele>1855</ele>
        <time>2021-10-29T16:40:01Z</time>
      </trkpt>
      <trkpt lat="42.84278" lon="0.19716">
        <ele>1855</ele>
        <time>2021-10-29T16:40:04Z</time>
      </trkpt>
      <trkpt lat="42.84273" lon="0.1972">
        <ele>1854</ele>
        <time>2021-10-29T16:40:08Z</time>
      </trkpt>
      <trkpt lat="42.84271" lon="0.19728">
        <ele>1854</ele>
        <time>2021-10-29T16:40:13Z</time>
      </trkpt>
      <trkpt lat="42.84267" lon="0.19732">
        <ele>1854</ele>
        <time>2021-10-29T16:40:17Z</time>
      </trkpt>
      <trkpt lat="42.8425" lon="0.1976">
        <ele>1852</ele>
        <time>2021-10-29T16:40:38Z</time>
      </trkpt>
      <trkpt lat="42.84241" lon="0.19767">
        <ele>1852</ele>
        <time>2021-10-29T16:40:47Z</time>
      </trkpt>
      <trkpt lat="42.84241" lon="0.1977">
        <ele>1853</ele>
        <time>2021-10-29T16:40:49Z</time>
      </trkpt>
      <trkpt lat="42.84239" lon="0.19774">
        <ele>1853</ele>
        <time>2021-10-29T16:40:51Z</time>
      </trkpt>
      <trkpt lat="42.84234" lon="0.19775">
        <ele>1853</ele>
        <time>2021-10-29T16:40:55Z</time>
      </trkpt>
      <trkpt lat="42.8422" lon="0.19785">
        <ele>1852</ele>
        <time>2021-10-29T16:41:08Z</time>
      </trkpt>
      <trkpt lat="42.84208" lon="0.19787">
        <ele>1851</ele>
        <time>2021-10-29T16:41:18Z</time>
      </trkpt>
      <trkpt lat="42.84208" lon="0.1979">
        <ele>1852</ele>
        <time>2021-10-29T16:41:20Z</time>
      </trkpt>
      <trkpt lat="42.84208" lon="0.19791">
        <ele>1852</ele>
        <time>2021-10-29T16:41:20Z</time>
      </trkpt>
      <trkpt lat="42.8421" lon="0.19792">
        <ele>1852</ele>
        <time>2021-10-29T16:41:22Z</time>
      </trkpt>
      <trkpt lat="42.84211" lon="0.19795">
        <ele>1853</ele>
        <time>2021-10-29T16:41:24Z</time>
      </trkpt>
      <trkpt lat="42.8421" lon="0.19801">
        <ele>1853</ele>
        <time>2021-10-29T16:41:27Z</time>
      </trkpt>
      <trkpt lat="42.84203" lon="0.19809">
        <ele>1854</ele>
        <time>2021-10-29T16:41:35Z</time>
      </trkpt>
      <trkpt lat="42.84199" lon="0.19825">
        <ele>1855</ele>
        <time>2021-10-29T16:41:45Z</time>
      </trkpt>
      <trkpt lat="42.84196" lon="0.1983">
        <ele>1856</ele>
        <time>2021-10-29T16:41:48Z</time>
      </trkpt>
      <trkpt lat="42.84194" lon="0.19849">
        <ele>1859</ele>
        <time>2021-10-29T16:42:00Z</time>
      </trkpt>
      <trkpt lat="42.84188" lon="0.19851">
        <ele>1858</ele>
        <time>2021-10-29T16:42:05Z</time>
      </trkpt>
      <trkpt lat="42.84187" lon="0.19857">
        <ele>1859</ele>
        <time>2021-10-29T16:42:08Z</time>
      </trkpt>
      <trkpt lat="42.84182" lon="0.19908">
        <ele>1866</ele>
        <time>2021-10-29T16:42:38Z</time>
      </trkpt>
      <trkpt lat="42.8416" lon="0.19973">
        <ele>1875</ele>
        <time>2021-10-29T16:43:20Z</time>
      </trkpt>
      <trkpt lat="42.8415" lon="0.19993">
        <ele>1878</ele>
        <time>2021-10-29T16:43:35Z</time>
      </trkpt>
      <trkpt lat="42.8415" lon="0.19999">
        <ele>1880</ele>
        <time>2021-10-29T16:43:38Z</time>
      </trkpt>
      <trkpt lat="42.84145" lon="0.20003">
        <ele>1880</ele>
        <time>2021-10-29T16:43:43Z</time>
      </trkpt>
      <trkpt lat="42.84146" lon="0.20009">
        <ele>1883</ele>
        <time>2021-10-29T16:43:46Z</time>
      </trkpt>
      <trkpt lat="42.84144" lon="0.20013">
        <ele>1884</ele>
        <time>2021-10-29T16:43:49Z</time>
      </trkpt>
      <trkpt lat="42.84136" lon="0.20022">
        <ele>1886</ele>
        <time>2021-10-29T16:43:58Z</time>
      </trkpt>
      <trkpt lat="42.84132" lon="0.20021">
        <ele>1884</ele>
        <time>2021-10-29T16:44:01Z</time>
      </trkpt>
      <trkpt lat="42.84121" lon="0.20036">
        <ele>1888</ele>
        <time>2021-10-29T16:44:13Z</time>
      </trkpt>
      <trkpt lat="42.84118" lon="0.20037">
        <ele>1888</ele>
        <time>2021-10-29T16:44:16Z</time>
      </trkpt>
      <trkpt lat="42.84116" lon="0.20037">
        <ele>1887</ele>
        <time>2021-10-29T16:44:17Z</time>
      </trkpt>
      <trkpt lat="42.84113" lon="0.20027">
        <ele>1883</ele>
        <time>2021-10-29T16:44:24Z</time>
      </trkpt>
      <trkpt lat="42.8411" lon="0.20024">
        <ele>1881</ele>
        <time>2021-10-29T16:44:27Z</time>
      </trkpt>
      <trkpt lat="42.84094" lon="0.20029">
        <ele>1880</ele>
        <time>2021-10-29T16:44:40Z</time>
      </trkpt>
      <trkpt lat="42.84081" lon="0.2002">
        <ele>1874</ele>
        <time>2021-10-29T16:44:52Z</time>
      </trkpt>
      <trkpt lat="42.84078" lon="0.20019">
        <ele>1873</ele>
        <time>2021-10-29T16:44:54Z</time>
      </trkpt>
      <trkpt lat="42.84071" lon="0.20024">
        <ele>1874</ele>
        <time>2021-10-29T16:45:00Z</time>
      </trkpt>
      <trkpt lat="42.84064" lon="0.20024">
        <ele>1873</ele>
        <time>2021-10-29T16:45:06Z</time>
      </trkpt>
      <trkpt lat="42.84056" lon="0.2003">
        <ele>1875</ele>
        <time>2021-10-29T16:45:13Z</time>
      </trkpt>
      <trkpt lat="42.84047" lon="0.20028">
        <ele>1873</ele>
        <time>2021-10-29T16:45:21Z</time>
      </trkpt>
      <trkpt lat="42.84043" lon="0.20033">
        <ele>1874</ele>
        <time>2021-10-29T16:45:25Z</time>
      </trkpt>
      <trkpt lat="42.84041" lon="0.2004">
        <ele>1877</ele>
        <time>2021-10-29T16:45:29Z</time>
      </trkpt>
      <trkpt lat="42.84028" lon="0.20055">
        <ele>1881</ele>
        <time>2021-10-29T16:45:43Z</time>
      </trkpt>
      <trkpt lat="42.84026" lon="0.20065">
        <ele>1884</ele>
        <time>2021-10-29T16:45:49Z</time>
      </trkpt>
      <trkpt lat="42.84021" lon="0.20071">
        <ele>1886</ele>
        <time>2021-10-29T16:45:54Z</time>
      </trkpt>
      <trkpt lat="42.84019" lon="0.20079">
        <ele>1889</ele>
        <time>2021-10-29T16:45:59Z</time>
      </trkpt>
      <trkpt lat="42.84004" lon="0.20083">
        <ele>1889</ele>
        <time>2021-10-29T16:46:12Z</time>
      </trkpt>
      <trkpt lat="42.83996" lon="0.20091">
        <ele>1892</ele>
        <time>2021-10-29T16:46:19Z</time>
      </trkpt>
      <trkpt lat="42.83986" lon="0.20098">
        <ele>1893</ele>
        <time>2021-10-29T16:46:28Z</time>
      </trkpt>
      <trkpt lat="42.83981" lon="0.20105">
        <ele>1894</ele>
        <time>2021-10-29T16:46:34Z</time>
      </trkpt>
      <trkpt lat="42.83971" lon="0.20117">
        <ele>1897</ele>
        <time>2021-10-29T16:46:45Z</time>
      </trkpt>
      <trkpt lat="42.83955" lon="0.20133">
        <ele>1900</ele>
        <time>2021-10-29T16:47:01Z</time>
      </trkpt>
      <trkpt lat="42.83941" lon="0.20141">
        <ele>1900</ele>
        <time>2021-10-29T16:47:13Z</time>
      </trkpt>
      <trkpt lat="42.83927" lon="0.20159">
        <ele>1904</ele>
        <time>2021-10-29T16:47:28Z</time>
      </trkpt>
      <trkpt lat="42.83923" lon="0.20165">
        <ele>1905</ele>
        <time>2021-10-29T16:47:33Z</time>
      </trkpt>
      <trkpt lat="42.83922" lon="0.2017">
        <ele>1907</ele>
        <time>2021-10-29T16:47:36Z</time>
      </trkpt>
      <trkpt lat="42.83918" lon="0.20175">
        <ele>1909</ele>
        <time>2021-10-29T16:47:40Z</time>
      </trkpt>
      <trkpt lat="42.83909" lon="0.20176">
        <ele>1908</ele>
        <time>2021-10-29T16:47:48Z</time>
      </trkpt>
      <trkpt lat="42.83904" lon="0.20182">
        <ele>1910</ele>
        <time>2021-10-29T16:47:53Z</time>
      </trkpt>
      <trkpt lat="42.83886" lon="0.20213">
        <ele>1924</ele>
        <time>2021-10-29T16:48:16Z</time>
      </trkpt>
      <trkpt lat="42.83881" lon="0.20217">
        <ele>1925</ele>
        <time>2021-10-29T16:48:21Z</time>
      </trkpt>
      <trkpt lat="42.83855" lon="0.20224">
        <ele>1923</ele>
        <time>2021-10-29T16:48:42Z</time>
      </trkpt>
      <trkpt lat="42.8385" lon="0.20234">
        <ele>1926</ele>
        <time>2021-10-29T16:48:49Z</time>
      </trkpt>
      <trkpt lat="42.83834" lon="0.20235">
        <ele>1923</ele>
        <time>2021-10-29T16:49:02Z</time>
      </trkpt>
      <trkpt lat="42.83828" lon="0.20244">
        <ele>1926</ele>
        <time>2021-10-29T16:49:09Z</time>
      </trkpt>
      <trkpt lat="42.83825" lon="0.20256">
        <ele>1930</ele>
        <time>2021-10-29T16:49:17Z</time>
      </trkpt>
      <trkpt lat="42.83821" lon="0.20263">
        <ele>1932</ele>
        <time>2021-10-29T16:49:22Z</time>
      </trkpt>
      <trkpt lat="42.83817" lon="0.20264">
        <ele>1932</ele>
        <time>2021-10-29T16:49:25Z</time>
      </trkpt>
      <trkpt lat="42.83812" lon="0.20272">
        <ele>1934</ele>
        <time>2021-10-29T16:49:31Z</time>
      </trkpt>
      <trkpt lat="42.83803" lon="0.20272">
        <ele>1931</ele>
        <time>2021-10-29T16:49:38Z</time>
      </trkpt>
      <trkpt lat="42.83792" lon="0.20285">
        <ele>1934</ele>
        <time>2021-10-29T16:49:50Z</time>
      </trkpt>
      <trkpt lat="42.83786" lon="0.20285">
        <ele>1933</ele>
        <time>2021-10-29T16:49:55Z</time>
      </trkpt>
      <trkpt lat="42.83785" lon="0.20288">
        <ele>1934</ele>
        <time>2021-10-29T16:49:57Z</time>
      </trkpt>
      <trkpt lat="42.83782" lon="0.20287">
        <ele>1933</ele>
        <time>2021-10-29T16:49:59Z</time>
      </trkpt>
      <trkpt lat="42.8378" lon="0.20291">
        <ele>1934</ele>
        <time>2021-10-29T16:50:02Z</time>
      </trkpt>
      <trkpt lat="42.83775" lon="0.20292">
        <ele>1933</ele>
        <time>2021-10-29T16:50:06Z</time>
      </trkpt>
      <trkpt lat="42.8377" lon="0.20291">
        <ele>1931</ele>
        <time>2021-10-29T16:50:10Z</time>
      </trkpt>
      <trkpt lat="42.83766" lon="0.20293">
        <ele>1931</ele>
        <time>2021-10-29T16:50:14Z</time>
      </trkpt>
      <trkpt lat="42.83762" lon="0.20295">
        <ele>1931</ele>
        <time>2021-10-29T16:50:17Z</time>
      </trkpt>
      <trkpt lat="42.83758" lon="0.20306">
        <ele>1935</ele>
        <time>2021-10-29T16:50:24Z</time>
      </trkpt>
      <trkpt lat="42.83742" lon="0.20319">
        <ele>1937</ele>
        <time>2021-10-29T16:50:39Z</time>
      </trkpt>
      <trkpt lat="42.83727" lon="0.20329">
        <ele>1939</ele>
        <time>2021-10-29T16:50:53Z</time>
      </trkpt>
      <trkpt lat="42.8367" lon="0.20394">
        <ele>1952</ele>
        <time>2021-10-29T16:51:52Z</time>
      </trkpt>
      <trkpt lat="42.83664" lon="0.20398">
        <ele>1952</ele>
        <time>2021-10-29T16:51:57Z</time>
      </trkpt>
      <trkpt lat="42.83661" lon="0.20406">
        <ele>1955</ele>
        <time>2021-10-29T16:52:03Z</time>
      </trkpt>
      <trkpt lat="42.8366" lon="0.20424">
        <ele>1961</ele>
        <time>2021-10-29T16:52:13Z</time>
      </trkpt>
      <trkpt lat="42.83674" lon="0.20424">
        <ele>1964</ele>
        <time>2021-10-29T16:52:25Z</time>
      </trkpt>
      <trkpt lat="42.83703" lon="0.20415">
        <ele>1970</ele>
        <time>2021-10-29T16:52:48Z</time>
      </trkpt>
      <trkpt lat="42.83711" lon="0.20416">
        <ele>1972</ele>
        <time>2021-10-29T16:52:55Z</time>
      </trkpt>
      <trkpt lat="42.83725" lon="0.2041">
        <ele>1974</ele>
        <time>2021-10-29T16:53:07Z</time>
      </trkpt>
      <trkpt lat="42.83753" lon="0.20406">
        <ele>1980</ele>
        <time>2021-10-29T16:53:29Z</time>
      </trkpt>
      <trkpt lat="42.83765" lon="0.20411">
        <ele>1985</ele>
        <time>2021-10-29T16:53:39Z</time>
      </trkpt>
      <trkpt lat="42.83774" lon="0.20419">
        <ele>1990</ele>
        <time>2021-10-29T16:53:48Z</time>
      </trkpt>
      <trkpt lat="42.83809" lon="0.20426">
        <ele>2001</ele>
        <time>2021-10-29T16:54:16Z</time>
      </trkpt>
      <trkpt lat="42.83819" lon="0.20427">
        <ele>2003</ele>
        <time>2021-10-29T16:54:24Z</time>
      </trkpt>
      <trkpt lat="42.83842" lon="0.20418">
        <ele>2004</ele>
        <time>2021-10-29T16:54:43Z</time>
      </trkpt>
      <trkpt lat="42.83853" lon="0.20417">
        <ele>2006</ele>
        <time>2021-10-29T16:54:52Z</time>
      </trkpt>
      <trkpt lat="42.83896" lon="0.20418">
        <ele>2015</ele>
        <time>2021-10-29T16:55:26Z</time>
      </trkpt>
      <trkpt lat="42.83907" lon="0.20412">
        <ele>2014</ele>
        <time>2021-10-29T16:55:36Z</time>
      </trkpt>
      <trkpt lat="42.83931" lon="0.20417">
        <ele>2020</ele>
        <time>2021-10-29T16:55:55Z</time>
      </trkpt>
      <trkpt lat="42.83936" lon="0.20422">
        <ele>2023</ele>
        <time>2021-10-29T16:56:00Z</time>
      </trkpt>
      <trkpt lat="42.83936" lon="0.20429">
        <ele>2026</ele>
        <time>2021-10-29T16:56:04Z</time>
      </trkpt>
      <trkpt lat="42.83963" lon="0.20434">
        <ele>2031</ele>
        <time>2021-10-29T16:56:26Z</time>
      </trkpt>
      <trkpt lat="42.83976" lon="0.2044">
        <ele>2034</ele>
        <time>2021-10-29T16:56:37Z</time>
      </trkpt>
      <trkpt lat="42.83981" lon="0.20438">
        <ele>2034</ele>
        <time>2021-10-29T16:56:41Z</time>
      </trkpt>
      <trkpt lat="42.83988" lon="0.20441">
        <ele>2036</ele>
        <time>2021-10-29T16:56:47Z</time>
      </trkpt>
      <trkpt lat="42.83994" lon="0.20438">
        <ele>2036</ele>
        <time>2021-10-29T16:56:52Z</time>
      </trkpt>
      <trkpt lat="42.8401" lon="0.20439">
        <ele>2037</ele>
        <time>2021-10-29T16:57:05Z</time>
      </trkpt>
      <trkpt lat="42.84021" lon="0.20433">
        <ele>2035</ele>
        <time>2021-10-29T16:57:15Z</time>
      </trkpt>
      <trkpt lat="42.84038" lon="0.20437">
        <ele>2035</ele>
        <time>2021-10-29T16:57:29Z</time>
      </trkpt>
      <trkpt lat="42.84043" lon="0.20447">
        <ele>2038</ele>
        <time>2021-10-29T16:57:36Z</time>
      </trkpt>
      <trkpt lat="42.84059" lon="0.20462">
        <ele>2042</ele>
        <time>2021-10-29T16:57:51Z</time>
      </trkpt>
      <trkpt lat="42.84075" lon="0.20469">
        <ele>2044</ele>
        <time>2021-10-29T16:58:05Z</time>
      </trkpt>
      <trkpt lat="42.84099" lon="0.20499">
        <ele>2051</ele>
        <time>2021-10-29T16:58:31Z</time>
      </trkpt>
      <trkpt lat="42.8411" lon="0.20535">
        <ele>2058</ele>
        <time>2021-10-29T16:58:54Z</time>
      </trkpt>
      <trkpt lat="42.84114" lon="0.20542">
        <ele>2059</ele>
        <time>2021-10-29T16:58:59Z</time>
      </trkpt>
      <trkpt lat="42.84114" lon="0.20549">
        <ele>2061</ele>
        <time>2021-10-29T16:59:03Z</time>
      </trkpt>
      <trkpt lat="42.84145" lon="0.20625">
        <ele>2073</ele>
        <time>2021-10-29T16:59:54Z</time>
      </trkpt>
      <trkpt lat="42.84162" lon="0.20654">
        <ele>2076</ele>
        <time>2021-10-29T17:00:16Z</time>
      </trkpt>
      <trkpt lat="42.84168" lon="0.20669">
        <ele>2078</ele>
        <time>2021-10-29T17:00:26Z</time>
      </trkpt>
      <trkpt lat="42.84174" lon="0.20688">
        <ele>2083</ele>
        <time>2021-10-29T17:00:38Z</time>
      </trkpt>
      <trkpt lat="42.84213" lon="0.20774">
        <ele>2103</ele>
        <time>2021-10-29T17:01:37Z</time>
      </trkpt>
      <trkpt lat="42.84231" lon="0.20808">
        <ele>2110</ele>
        <time>2021-10-29T17:02:02Z</time>
      </trkpt>
      <trkpt lat="42.8426" lon="0.20838">
        <ele>2117</ele>
        <time>2021-10-29T17:02:31Z</time>
      </trkpt>
      <trkpt lat="42.84272" lon="0.20844">
        <ele>2120</ele>
        <time>2021-10-29T17:02:41Z</time>
      </trkpt>
      <trkpt lat="42.84306" lon="0.20852">
        <ele>2126</ele>
        <time>2021-10-29T17:03:09Z</time>
      </trkpt>
      <trkpt lat="42.84331" lon="0.20841">
        <ele>2126</ele>
        <time>2021-10-29T17:03:30Z</time>
      </trkpt>
      <trkpt lat="42.84346" lon="0.20838">
        <ele>2129</ele>
        <time>2021-10-29T17:03:42Z</time>
      </trkpt>
      <trkpt lat="42.84367" lon="0.20844">
        <ele>2135</ele>
        <time>2021-10-29T17:03:59Z</time>
      </trkpt>
      <trkpt lat="42.84386" lon="0.20845">
        <ele>2140</ele>
        <time>2021-10-29T17:04:15Z</time>
      </trkpt>
      <trkpt lat="42.84391" lon="0.20847">
        <ele>2141</ele>
        <time>2021-10-29T17:04:19Z</time>
      </trkpt>
      <trkpt lat="42.84396" lon="0.20846">
        <ele>2142</ele>
        <time>2021-10-29T17:04:23Z</time>
      </trkpt>
      <trkpt lat="42.84405" lon="0.20839">
        <ele>2144</ele>
        <time>2021-10-29T17:04:31Z</time>
      </trkpt>
      <trkpt lat="42.84428" lon="0.20811">
        <ele>2145</ele>
        <time>2021-10-29T17:04:56Z</time>
      </trkpt>
      <trkpt lat="42.84437" lon="0.20808">
        <ele>2145</ele>
        <time>2021-10-29T17:05:03Z</time>
      </trkpt>
      <trkpt lat="42.84451" lon="0.20794">
        <ele>2145</ele>
        <time>2021-10-29T17:05:17Z</time>
      </trkpt>
      <trkpt lat="42.84458" lon="0.20784">
        <ele>2144</ele>
        <time>2021-10-29T17:05:25Z</time>
      </trkpt>
      <trkpt lat="42.84464" lon="0.2078">
        <ele>2144</ele>
        <time>2021-10-29T17:05:31Z</time>
      </trkpt>
      <trkpt lat="42.84486" lon="0.20776">
        <ele>2146</ele>
        <time>2021-10-29T17:05:48Z</time>
      </trkpt>
      <trkpt lat="42.84497" lon="0.20777">
        <ele>2147</ele>
        <time>2021-10-29T17:05:57Z</time>
      </trkpt>
      <trkpt lat="42.84513" lon="0.20782">
        <ele>2148</ele>
        <time>2021-10-29T17:06:10Z</time>
      </trkpt>
      <trkpt lat="42.8453" lon="0.20796">
        <ele>2150</ele>
        <time>2021-10-29T17:06:26Z</time>
      </trkpt>
      <trkpt lat="42.84545" lon="0.2082">
        <ele>2151</ele>
        <time>2021-10-29T17:06:45Z</time>
      </trkpt>
      <trkpt lat="42.84547" lon="0.20839">
        <ele>2153</ele>
        <time>2021-10-29T17:06:56Z</time>
      </trkpt>
      <trkpt lat="42.84547" lon="0.20857">
        <ele>2155</ele>
        <time>2021-10-29T17:07:07Z</time>
      </trkpt>
      <trkpt lat="42.84551" lon="0.2088">
        <ele>2157</ele>
        <time>2021-10-29T17:07:20Z</time>
      </trkpt>
      <trkpt lat="42.84585" lon="0.20899">
        <ele>2158</ele>
        <time>2021-10-29T17:07:50Z</time>
      </trkpt>
      <trkpt lat="42.84604" lon="0.20921">
        <ele>2160</ele>
        <time>2021-10-29T17:08:10Z</time>
      </trkpt>
      <trkpt lat="42.84622" lon="0.20934">
        <ele>2162</ele>
        <time>2021-10-29T17:08:26Z</time>
      </trkpt>
      <trkpt lat="42.84643" lon="0.20942">
        <ele>2163</ele>
        <time>2021-10-29T17:08:44Z</time>
      </trkpt>
      <trkpt lat="42.84661" lon="0.20951">
        <ele>2163</ele>
        <time>2021-10-29T17:08:59Z</time>
      </trkpt>
      <trkpt lat="42.84675" lon="0.20963">
        <ele>2166</ele>
        <time>2021-10-29T17:09:12Z</time>
      </trkpt>
      <trkpt lat="42.84682" lon="0.20977">
        <ele>2169</ele>
        <time>2021-10-29T17:09:22Z</time>
      </trkpt>
      <trkpt lat="42.84692" lon="0.21011">
        <ele>2176</ele>
        <time>2021-10-29T17:09:44Z</time>
      </trkpt>
      <trkpt lat="42.84694" lon="0.21036">
        <ele>2181</ele>
        <time>2021-10-29T17:09:58Z</time>
      </trkpt>
      <trkpt lat="42.84709" lon="0.21084">
        <ele>2192</ele>
        <time>2021-10-29T17:10:29Z</time>
      </trkpt>
      <trkpt lat="42.8471" lon="0.21111">
        <ele>2194</ele>
        <time>2021-10-29T17:10:45Z</time>
      </trkpt>
      <trkpt lat="42.84708" lon="0.21134">
        <ele>2195</ele>
        <time>2021-10-29T17:10:58Z</time>
      </trkpt>
      <trkpt lat="42.8471" lon="0.21148">
        <ele>2197</ele>
        <time>2021-10-29T17:11:07Z</time>
      </trkpt>
      <trkpt lat="42.8471" lon="0.21177">
        <ele>2199</ele>
        <time>2021-10-29T17:11:24Z</time>
      </trkpt>
      <trkpt lat="42.84707" lon="0.21188">
        <ele>2199</ele>
        <time>2021-10-29T17:11:31Z</time>
      </trkpt>
      <trkpt lat="42.84708" lon="0.212">
        <ele>2200</ele>
        <time>2021-10-29T17:11:38Z</time>
      </trkpt>
      <trkpt lat="42.84705" lon="0.21223">
        <ele>2202</ele>
        <time>2021-10-29T17:11:52Z</time>
      </trkpt>
      <trkpt lat="42.84715" lon="0.2126">
        <ele>2205</ele>
        <time>2021-10-29T17:12:15Z</time>
      </trkpt>
      <trkpt lat="42.84721" lon="0.21271">
        <ele>2207</ele>
        <time>2021-10-29T17:12:23Z</time>
      </trkpt>
      <trkpt lat="42.84723" lon="0.2127">
        <ele>2207</ele>
        <time>2021-10-29T17:12:24Z</time>
      </trkpt>
      <trkpt lat="42.84728" lon="0.21279">
        <ele>2207</ele>
        <time>2021-10-29T17:12:31Z</time>
      </trkpt>
      <trkpt lat="42.84733" lon="0.21292">
        <ele>2208</ele>
        <time>2021-10-29T17:12:40Z</time>
      </trkpt>
      <trkpt lat="42.84752" lon="0.21309">
        <ele>2210</ele>
        <time>2021-10-29T17:12:58Z</time>
      </trkpt>
      <trkpt lat="42.8477" lon="0.21338">
        <ele>2213</ele>
        <time>2021-10-29T17:13:20Z</time>
      </trkpt>
      <trkpt lat="42.84782" lon="0.21346">
        <ele>2216</ele>
        <time>2021-10-29T17:13:31Z</time>
      </trkpt>
      <trkpt lat="42.84792" lon="0.2134">
        <ele>2216</ele>
        <time>2021-10-29T17:13:40Z</time>
      </trkpt>
      <trkpt lat="42.84792" lon="0.21336">
        <ele>2215</ele>
        <time>2021-10-29T17:13:42Z</time>
      </trkpt>
      <trkpt lat="42.84819" lon="0.21305">
        <ele>2215</ele>
        <time>2021-10-29T17:14:10Z</time>
      </trkpt>
      <trkpt lat="42.84843" lon="0.21278">
        <ele>2216</ele>
        <time>2021-10-29T17:14:35Z</time>
      </trkpt>
      <trkpt lat="42.84854" lon="0.21271">
        <ele>2216</ele>
        <time>2021-10-29T17:14:45Z</time>
      </trkpt>
      <trkpt lat="42.84861" lon="0.21263">
        <ele>2216</ele>
        <time>2021-10-29T17:14:52Z</time>
      </trkpt>
      <trkpt lat="42.84886" lon="0.21223">
        <ele>2218</ele>
        <time>2021-10-29T17:15:23Z</time>
      </trkpt>
      <trkpt lat="42.84901" lon="0.2121">
        <ele>2220</ele>
        <time>2021-10-29T17:15:37Z</time>
      </trkpt>
      <trkpt lat="42.84907" lon="0.21211">
        <ele>2220</ele>
        <time>2021-10-29T17:15:42Z</time>
      </trkpt>
      <trkpt lat="42.84907" lon="0.21201">
        <ele>2220</ele>
        <time>2021-10-29T17:15:48Z</time>
      </trkpt>
      <trkpt lat="42.84903" lon="0.21191">
        <ele>2220</ele>
        <time>2021-10-29T17:15:55Z</time>
      </trkpt>
      <trkpt lat="42.84903" lon="0.2118">
        <ele>2221</ele>
        <time>2021-10-29T17:16:01Z</time>
      </trkpt>
      <trkpt lat="42.84906" lon="0.21174">
        <ele>2221</ele>
        <time>2021-10-29T17:16:05Z</time>
      </trkpt>
      <trkpt lat="42.8491" lon="0.21173">
        <ele>2221</ele>
        <time>2021-10-29T17:16:09Z</time>
      </trkpt>
      <trkpt lat="42.84915" lon="0.21149">
        <ele>2222</ele>
        <time>2021-10-29T17:16:23Z</time>
      </trkpt>
      <trkpt lat="42.84912" lon="0.21123">
        <ele>2223</ele>
        <time>2021-10-29T17:16:39Z</time>
      </trkpt>
      <trkpt lat="42.84913" lon="0.21113">
        <ele>2224</ele>
        <time>2021-10-29T17:16:45Z</time>
      </trkpt>
      <trkpt lat="42.84914" lon="0.21107">
        <ele>2224</ele>
        <time>2021-10-29T17:16:48Z</time>
      </trkpt>
      <trkpt lat="42.84924" lon="0.21091">
        <ele>2224</ele>
        <time>2021-10-29T17:17:01Z</time>
      </trkpt>
      <trkpt lat="42.84932" lon="0.21066">
        <ele>2226</ele>
        <time>2021-10-29T17:17:17Z</time>
      </trkpt>
      <trkpt lat="42.84933" lon="0.21051">
        <ele>2227</ele>
        <time>2021-10-29T17:17:25Z</time>
      </trkpt>
      <trkpt lat="42.84957" lon="0.21015">
        <ele>2228</ele>
        <time>2021-10-29T17:17:54Z</time>
      </trkpt>
      <trkpt lat="42.8496" lon="0.20983">
        <ele>2230</ele>
        <time>2021-10-29T17:18:13Z</time>
      </trkpt>
      <trkpt lat="42.84974" lon="0.20965">
        <ele>2230</ele>
        <time>2021-10-29T17:18:28Z</time>
      </trkpt>
      <trkpt lat="42.85024" lon="0.2094">
        <ele>2226</ele>
        <time>2021-10-29T17:19:11Z</time>
      </trkpt>
      <trkpt lat="42.85041" lon="0.20924">
        <ele>2226</ele>
        <time>2021-10-29T17:19:28Z</time>
      </trkpt>
      <trkpt lat="42.85091" lon="0.20904">
        <ele>2225</ele>
        <time>2021-10-29T17:20:09Z</time>
      </trkpt>
      <trkpt lat="42.85109" lon="0.20882">
        <ele>2226</ele>
        <time>2021-10-29T17:20:29Z</time>
      </trkpt>
      <trkpt lat="42.8513" lon="0.20867">
        <ele>2225</ele>
        <time>2021-10-29T17:20:48Z</time>
      </trkpt>
      <trkpt lat="42.85146" lon="0.20858">
        <ele>2224</ele>
        <time>2021-10-29T17:21:01Z</time>
      </trkpt>
      <trkpt lat="42.8516" lon="0.20856">
        <ele>2222</ele>
        <time>2021-10-29T17:21:13Z</time>
      </trkpt>
      <trkpt lat="42.85184" lon="0.20857">
        <ele>2221</ele>
        <time>2021-10-29T17:21:32Z</time>
      </trkpt>
      <trkpt lat="42.85199" lon="0.20854">
        <ele>2221</ele>
        <time>2021-10-29T17:21:44Z</time>
      </trkpt>
      <trkpt lat="42.85213" lon="0.20846">
        <ele>2221</ele>
        <time>2021-10-29T17:21:56Z</time>
      </trkpt>
      <trkpt lat="42.85218" lon="0.20831">
        <ele>2221</ele>
        <time>2021-10-29T17:22:06Z</time>
      </trkpt>
      <trkpt lat="42.85226" lon="0.20821">
        <ele>2222</ele>
        <time>2021-10-29T17:22:15Z</time>
      </trkpt>
      <trkpt lat="42.85233" lon="0.20808">
        <ele>2223</ele>
        <time>2021-10-29T17:22:24Z</time>
      </trkpt>
      <trkpt lat="42.85239" lon="0.20805">
        <ele>2223</ele>
        <time>2021-10-29T17:22:29Z</time>
      </trkpt>
      <trkpt lat="42.85246" lon="0.20809">
        <ele>2222</ele>
        <time>2021-10-29T17:22:35Z</time>
      </trkpt>
      <trkpt lat="42.85254" lon="0.20821">
        <ele>2221</ele>
        <time>2021-10-29T17:22:45Z</time>
      </trkpt>
      <trkpt lat="42.85284" lon="0.20837">
        <ele>2222</ele>
        <time>2021-10-29T17:23:11Z</time>
      </trkpt>
      <trkpt lat="42.85303" lon="0.20852">
        <ele>2224</ele>
        <time>2021-10-29T17:23:28Z</time>
      </trkpt>
      <trkpt lat="42.85306" lon="0.20863">
        <ele>2225</ele>
        <time>2021-10-29T17:23:35Z</time>
      </trkpt>
      <trkpt lat="42.85311" lon="0.2087">
        <ele>2226</ele>
        <time>2021-10-29T17:23:41Z</time>
      </trkpt>
      <trkpt lat="42.85319" lon="0.20883">
        <ele>2228</ele>
        <time>2021-10-29T17:23:51Z</time>
      </trkpt>
      <trkpt lat="42.85329" lon="0.20896">
        <ele>2230</ele>
        <time>2021-10-29T17:24:02Z</time>
      </trkpt>
      <trkpt lat="42.85337" lon="0.20901">
        <ele>2232</ele>
        <time>2021-10-29T17:24:09Z</time>
      </trkpt>
      <trkpt lat="42.85352" lon="0.20917">
        <ele>2235</ele>
        <time>2021-10-29T17:24:24Z</time>
      </trkpt>
      <trkpt lat="42.85355" lon="0.20928">
        <ele>2237</ele>
        <time>2021-10-29T17:24:31Z</time>
      </trkpt>
      <trkpt lat="42.85354" lon="0.20934">
        <ele>2238</ele>
        <time>2021-10-29T17:24:35Z</time>
      </trkpt>
      <trkpt lat="42.85347" lon="0.20942">
        <ele>2239</ele>
        <time>2021-10-29T17:24:42Z</time>
      </trkpt>
      <trkpt lat="42.85344" lon="0.20954">
        <ele>2241</ele>
        <time>2021-10-29T17:24:49Z</time>
      </trkpt>
      <trkpt lat="42.85355" lon="0.20953">
        <ele>2242</ele>
        <time>2021-10-29T17:24:58Z</time>
      </trkpt>
      <trkpt lat="42.85347" lon="0.20969">
        <ele>2244</ele>
        <time>2021-10-29T17:25:10Z</time>
      </trkpt>
      <trkpt lat="42.8534" lon="0.2097">
        <ele>2244</ele>
        <time>2021-10-29T17:25:15Z</time>
      </trkpt>
      <trkpt lat="42.85336" lon="0.20974">
        <ele>2244</ele>
        <time>2021-10-29T17:25:19Z</time>
      </trkpt>
    </trkseg>
  </trk>
</gpx>